»
Législatives 2017
Tous les résultats dans votre commune et votre circonscription.

Alençon Alençon-Médavy 2017 : les résultats complets

La 44e édition d'Alençon-Médavy a vu 2 155 coureurs franchir la ligne d'arrivée.

26/03/2017 à 19:10 par Antoine Sauvêtre

Alençon-Médavy 2017 a vu 2 155 coureurs franchir la ligne d'arrivée.
Alençon-Médavy 2017 a vu 2 155 coureurs franchir la ligne d'arrivée.

Derrière Charles Ogari, 2 154 autres coureurs ont franchi la ligne d’arrivée d’Alençon-Médavy 2017.

Pour vous trouver facilement

Voici la liste complète par ordre d’arrivée et le temps officiel. Pour trouver votre classement et votre temps plus facilement, appuyez simultanément sur la touche Ctrl et la touche F, tapez votre nom de famille puis appuyez sur la touche Entrée.

Pos. Dossard Nom Prénom Commune Temps
1 1 OGARI CHARLES KENYA 00:51:55
2 4 LE DEAN GEOFFREY CAEN 00:53:35
3 2 LEGOUT JEREMY JOUE LES TOURS 00:53:46
4 5 EPIPHANE VINCENT CERISE 00:54:29
5 319 BOUTTIER FRANTZ TORCE EN VALLEE 00:55:15
6 3 DELORME JEROME VIF 00:56:41
7 1660 MARTEL GAYLORD AMBRIERES LES VALLEES 00:57:58
8 749 DUFOUR PAUL-LOUIS HEROUVILLE SAINT CLAIR 00:58:37
9 1781 NICOLLEAU BRICE LE MANS 00:58:49
10 1969 PRESTAVOINE CEDRIC TRIGUERES 00:58:57
11 168 BELIOT RONAN HEROUVILLE SAINT CLAIR 00:59:32
12 181 BERGHACHI MOHAMED NONANT LE PIN 00:59:45
13 9 VANNIER JEROME PRE EN PAIL 00:59:47
14 1076 GUERIN MANUEL ECOUCHE LES VALLEES 01:00:04
15 415 CHALUMEAU LIONEL L’AIGLE 01:00:46
16 372 CADOT JEREMY BREUVILLE 01:00:47
17 567 COURTEILLE REGIS LA CHAPELLE SAINT AUBIN 01:00:51
18 843 FONTAINE BASTIEN BARON SUR ODONT 01:00:56
19 8 GERAULT EMMANUEL ARGENTAN 01:01:14
20 1566 LIGNEUL EMMANUEL LOUPLANDE 01:01:26
21 6 GIBORY MAXIME VALFRAMBERT 01:01:31
22 2346 BEN ACHRAK MOHAMED LE MANS 01:01:34
23 429 CHAPELLIERE ANTHONY LA FERRIERE BOCHARD 01:01:42
24 2199 SUZANNE NICOLAS CAEN 01:01:43
25 896 GALODE JEAN-LOUIS ALENCON 01:01:49
26 650 DELHOMMEAU FABIEN SAINTE SABINE SUR LONGEVE 01:01:50
27 7 GIBORY JULIEN VALFRAMBERT 01:01:54
28 12 POLTAVSKA VALENTYNA UKRAINE 01:01:56
29 825 FERRE VALENTIN PASSAIS VILLAGES 01:02:03
30 173 BENACHRAK ISMAÏL ALENCON 01:02:15
31 433 CHAPPE MATTHIEU PONTORSON 01:02:20
32 1288 LAIGRE FREDERIC GRANDMESNIL 01:02:21
33 1408 LECOINTRE ARNAUD PASSAIS LA CONCEPTION 01:02:46
34 1019 GONZALES THIERRY LE MANS 01:02:52
35 673 DESIERREY FREDERIC ALENCON 01:02:52
36 530 COLLET PROSPER SAVIGNE L’EVEQUE 01:03:00
37 765 DURAND DANIEL GAVRUS 01:03:15
38 430 CHAPELLIERE YANN LYON 01:03:27
39 1849 PELLOUIN JULIEN JUVIGNY SOUS ANDAINE 01:03:32
40 1193 HOUSTIN YOANN SAINT HILAIRE DU HARCOUET 01:03:34
41 170 BELLEE ARNAUD BARNEVILLE-CARTERET 01:03:43
42 185 BERNARDEAU THOMAS LE MANS 01:03:45
43 1233 JOANNET SEBASTIEN LA CHAPELLE PRES SEES 01:03:48
44 1771 NAVET SEBASTIEN OCCAGNES 01:03:48
45 14 SIARD ANAÏS SAINT JEAN DE LA RIVIERE 01:03:55
46 1263 JULIEN DAVID MORTREE 01:03:56
47 2083 ROQUAIN VINCENT LA FERTE BERNARD 01:04:02
48 1898 PIEL FREDERIC FRIARDEL 01:04:08
49 742 DUCHESNE PATRICK LE RIBAY 01:04:11
50 350 BROUARD BENOIT LE MANS 01:04:31
51 1932 PORTAIS MAXIME SEES 01:04:56
52 1332 LAUNAY TONY PARNE SUR ROC 01:05:00
53 918 GARNIER SIMON LE MELE SUR SARTHE 01:05:04
54 1172 HEUZARD NICOLAS SEES 01:05:15
55 2213 TAURIN GUILLAUME BOIS D’ARCY 01:05:15
56 13 PECHKO GANNA UKRAINE 01:05:24
57 237 BLONDEL NICOLAS DAMIGNY 01:05:28
58 1762 MOUSSAY JEAN-FRANCOIS CONDE SUR SARTHE 01:05:31
59 1049 GRAFFIN SEBASTIEN GUECELARD 01:05:33
60 721 DROUILLET AYMERIK COULONGES SUR SARTHE 01:05:35
61 1135 HAUDEBERT FLORENT ALENCON 01:05:38
62 1007 GODIN BRUNO COLOMBELLES 01:05:40
63 919 GARREAU MATHIEU LOUPLANDE 01:05:44
64 1839 PAVARD CLEMENT GESNES LE GANDELIN 01:05:47
65 2054 ROBIN CLEMENT GOSNE 01:05:51
66 1417 LEDOUX CEDRIC DREUX 01:05:55
67 544 CORMIER REYNALD SEES 01:06:00
68 2151 SEBERT ADRIEN LA CHAPELLE PRES SEES 01:06:01
69 1535 LETELLIER SEBASTIEN SAINT HILAIRE DU HARCOUET 01:06:02
70 2279 VALLEE FABIEN GESNES LE GANDELIN 01:06:10
71 1061 GRIEU EMMANUEL SAINT REMY DE SILLE 01:06:14
72 707 DOUSSAINT CYRIL DAMIGNY 01:06:15
73 584 CUSSON VINCENT LONGNES 01:06:20
74 71 ANFRY JULIEN UROU ET CRENNES 01:06:23
75 1464 LEMARCHAND MARC MORTREE 01:06:26
76 2238 THOMELIN PASCAL ARGENTRE 01:06:28
77 2244 TISSERANDET MICKAEL LE MANS 01:06:32
78 2156 SEIGNEURAY ANTHONY BEAUFAY 01:06:33
79 1318 LANGLOIS MICKAEL LA SAUVAGERE 01:06:33
80 2272 URIE RUDDY BREZOLLES 01:06:40
81 78 ARCOUET THOMAS ECOUVES 01:06:41
82 2093 ROTROU XAVIER BOURGES 01:06:47
83 1274 LABADIE NICOLAS ERRE 01:06:50
84 583 CUNY PHILIPPE CAEN 01:06:59
85 1974 PREZEAU CHRISTOPHE BOISSY LES PERCHE 01:07:02
86 1906 PITARD MATHIEU BEUZEVILLE LA GRENIER 01:07:03
87 2192 SOURDON GUILLAUME BERNAY 01:07:05
88 1295 LAMBERT FABIEN ALENCON 01:07:06
89 1203 HUET BENOIT ALENCON 01:07:07
90 1908 PLANCHAIS EMMANUEL ALENCON 01:07:07
91 1503 LERAT DIDIER LES MONTS D’ANDAINE 01:07:08
92 1542 LETISSIER THEOPHILE SAINT FRAIMBAULT 01:07:08
93 1146 HEDOUX DAMIEN DAMIGNY 01:07:16
94 453 CHATELAIS NICOLAS VINCENNES 01:07:17
95 1483 LEPAISANT DAVID ALENCON 01:07:19
96 1580 LONGUET THOMAS PUTANGES LE LAC 01:07:19
97 2053 ROBIN BRUNO GOSNE 01:07:21
98 2033 RICHARD THOMAS SALINE 01:07:21
99 265 BOTHET JONATHAN ECOUCHE 01:07:25
100 1125 HAMON OLIVIER MENNEVAL 01:07:30
101 1153 HENRY ARNAUD MAGNY LE DESERT 01:07:31
102 1668 MARY FLORIAN ARGENTAN 01:07:45
103 489 CHOISNET DENIS LA BAZOGE 01:07:52
104 1532 LESOIN ALEXANDRE ALENCON 01:07:54
105 10 PERRUCHOT NICOLAS MARESCHE 01:08:02
106 2057 ROBIN JERÔME SAINT COSME EN VAIRAIS 01:08:03
107 925 GASNOT JEAN-LOUIS ARGENTEUIL 01:08:04
108 397 CATTIN THOMAS BRECE 01:08:05
109 226 BLANCHARD ANTOINE LE MANS 01:08:06
110 734 DUBRAY MICHAEL CONDE SUR NOIREAU 01:08:07
111 619 DEBASLY BENOIT IFS 01:08:09
112 2172 SEURIN PASCAL COURTOMER 01:08:13
113 2231 THIEULIN NICOLAS SAINT HILAIRE LA GERARD 01:08:13
114 968 GERVAIS EMILE COULOMBIERS 01:08:15
115 1054 GREAU BASTIEN NEUFCHATEL EN SAOSNOIS 01:08:16
116 1923 POLLAS SEBASTIEN LOUVERNE 01:08:21
117 1850 PELUSO ANGELINE THONON LES BAINS 01:08:28
118 73 ANNET DAVID LA POUEZE 01:08:29
119 437 CHARDONNAL FRANCOIS-XAVIER SAINT NICOLAS DES BOIS 01:08:31
120 1487 LEPELTIER ANTONIN TRANGE 01:08:34
121 527 COLLET LUDOVIC LE MANS 01:08:35
122 112 BARBAULT GUILLAUME LA FERTE BERNARD 01:08:35
123 772 DUSSAUX PASCAL BARENTIN 01:08:36
124 1961 POURCEAU JEAN-MICHEL LA FERTE BERNARD 01:08:40
125 722 DROUILLET THIERRY COULONGES SUR SARTHE 01:08:41
126 623 DECHANCE BENOIT SAINT HILAIRE DU HARCOUET 01:08:42
127 2282 VAN DEN ELSHOUT ADRIANUS NOTRE DAME D’ESTREES 01:08:42
128 2323 VIGNERON ROMAIN DUCLAIR 01:08:48
129 1915 POIRIER MATHIEU ALENCON 01:08:52
130 1122 HAMMOUDI SID AHMED OLIVET 01:08:52
131 1683 MAURICE LAURENT SAINT JULIEN SUR SARTHE 01:08:53
132 1137 HAVARD CHRISTOPHE SAINT FRAIMBAULT 01:08:56
133 92 AUZOU JEAN-BAPTISTE CLAMART 01:08:57
134 632 DELAHAYE YOHANN ASTILLE 01:08:58
135 1384 LEBOIS NICOLAS NANTES 01:08:58
136 2228 THIBOUT PHILIPPE LURAY 01:09:01
137 503 CLEMENT JULIEN HOULGATE 01:09:05
138 54 AGIS JEROME CHAILLOUE 01:09:08
139 1293 LALLAOUI JEAN-PIERRE CARROUGES 01:09:18
140 564 COUPRY LAURENT COLOMBIERS 01:09:19
141 1157 HERBINIERE DAVID ARGENTAN 01:09:23
142 279 BOUGEANT FREDERIC MEZERAY 01:09:27
143 2090 ROTROU ANTHONY LA CHAPELLE SAINT URBIN 01:09:30
144 203 BEZANNIER HUSSON ROMAIN VALFRAMBERT 01:09:32
145 322 BOUVET COME CUISSAI 01:09:33
146 2111 ROY CEDRIC CORNEVILLE SUR RISLE 01:09:33
147 899 GANDON JEAN-LUC JOUE DU BOIS 01:09:36
148 692 DIARD ANTHONY ALENCON 01:09:42
149 472 CHEVALIER ALEXIS THUBOEUF 01:09:43
150 618 DE YBARLUCEA LOUIS-REMI LE MANS 01:09:46
151 2063 ROBOAM JEROME FATINES 01:09:48
152 1472 LEMOIGNE FRANCOIS TREVIERES 01:09:49
153 164 BEDOUET THIERRY HESLOUP 01:09:52
154 1475 LEMOINE MATHIEU HELOUP 01:09:53
155 788 EL AMRANI MOHAMED ALENCON 01:09:56
156 1158 HERICHER EMILIEN PARIS 01:09:57
157 113 BARBEAU DAVID CHEUX 01:09:57
158 1444 LEGRAND SAMUEL SEES 01:09:57
159 2310 VERON CHRISTINE VILLAINES LA JUHEL 01:09:58
160 2120 SACRE YANNICK BOUER 01:09:58
161 1709 METAIRIE BRUNO LA LACELLE 01:09:59
162 822 FERRARI DAVID VILLERS CANIVET 01:10:00
163 628 DELAHAYE BENOIT JOUE DU BOIS 01:10:01
164 1205 HUET LOIC LA FERTE BERNARD 01:10:01
165 1210 HUON JEROME MONTAILLE 01:10:02
166 1980 PROVOTS CEDRIC CHAMPFLEUR 01:10:06
167 1112 GUITTENY FABIEN LYON 01:10:09
168 659 DENIS PASCAL LE MANS 01:10:11
169 1584 LORMOIS JEAN-MARIE VIMOUTIERS 01:10:13
170 1854 PEREIRA MENDES TONY MONVILLIERS GRANDHOUX 01:10:15
171 1893 PICHOT ERIC LE MANS 01:10:16
172 1224 JDIYA NABIL LE MANS 01:10:18
173 2330 VIVIER STEPHANE SAINT FRAIMBAULT 01:10:22
174 1929 PORCHER OLIVIER CREVECOEUR EN AUGE 01:10:23
175 1091 GUIBOUT JEROME CARROUGES 01:10:26
176 251 BOMEL GUILLAUME RUEIL MALMAISON 01:10:28
177 1071 GUERIN FREDERIC TESSE FROULAY 01:10:30
178 84 ASSIER LUDOVIC ALENCON 01:10:32
179 268 BOTTRAS VINCENT LE MANS 01:10:33
180 588 DA SILVA TORRES PAULO LA COUTURE BOUSSEY 01:10:37
181 246 BOIREAU JEREMIE BETTON 01:10:41
182 2257 TREHARD ARNAUD LA LANDE DE GOULT 01:10:43
183 1089 GUIBERT SEBASTIEN LOUPFOUGERES 01:10:45
184 2261 TRICHET DAVID VERETZ 01:10:46
185 600 DANLOS JULIEN HEROUVILLE SAINT CLAIR 01:10:47
186 1207 HUETTE JEAN-PAUL SAINTE MARIE LA ROBERT 01:10:50
187 550 CORNUEL THOMAS TASSE 01:10:51
188 2055 ROBIN GABRIEL SAINT AUBIN LE VERTUEUX 01:10:53
189 227 BLANCHARD BENJAMIN FLERS 01:10:56
190 1208 HUGERON CHRISTOPHE SAINT GEORGES DES GROSEILLERS 01:10:56
191 389 CARRO JULIEN LISIEUX 01:10:57
192 1235 JODAR BORIS SARCEAUX 01:11:02
193 2021 RENAULT STEPHANE HEROUVILLE SAINT CLAIR 01:11:02
194 752 DUHAUBOIS ALEXANDRE GESNES LE GANDELIN 01:11:02
195 1033 GOUJON MATHIEU LES MONTILS 01:11:05
196 1896 PICOT EDDY COULONCES 01:11:06
197 1286 LAIGNEAU SERGE SAINT VIGOR LE GRAND 01:11:09
198 805 FANOUILLET ROMEO DAMIGNY 01:11:15
199 1185 HOTTIN DIDIER MONTGAROULT 01:11:16
200 1088 GUIBERT ROMAIN NANTES 01:11:16
201 2113 ROYER ANTHONY BOURG LE ROI 01:11:16
202 1426 LEFEVRE LAURENT MAY SUR ORNE 01:11:17
203 1440 LEGOUT DENIS TRELAZE 01:11:19
204 1191 HOULETTE PAUL CAEN 01:11:23
205 2139 SAUGERON FREDERIC ARCONNAY 01:11:25
206 1795 NOUVEL BAPTISTE LALEU 01:11:25
207 669 DESCAZOT VINCENT VALFRAMBERT 01:11:27
208 912 GARNIER BERNARD ROMAGNY 01:11:29
209 703 DOUARD ADRIEN SAINT GERMAIN DU CORBEIS 01:11:30
210 1667 MARY AURELIEN SAINT GEORGES D’ANNEBECQ 01:11:34
211 1259 JUGLET JULIEN CHAMPFLEUR 01:11:35
212 1317 LANGLOIS DORIANE STAINS 01:11:35
213 1731 MONGUILLON SEBASTIEN LA FERTE BERNARD 01:11:38
214 1206 HUET YANNICK SOULIGNE SOUS BALLON 01:11:39
215 261 BORDE JEROME VIREY 01:11:40
216 869 FOURNEL STEPHANE DAMBLAINVILLE 01:11:41
217 1369 LE TELLIER JULIEN SAINT GERMAIN LA BLANCHE HERBE 01:11:41
218 935 GAUDRE DAVID LAVAL 01:11:43
219 837 FLORIN ARNAUD RUGLES 01:11:44
220 947 GAUTIER DIDIER LE MANS 01:11:45
221 100 BAHIER YOANN CHARCHIGNE 01:11:47
222 1689 MEHEUST PHILIPPE SAINT GERMAIN DU CORBEIS 01:11:48
223 1498 LEPRETRE JEAN-PAUL JANZE 01:11:48
224 150 BEAU STEPHANE LE MANS 01:11:58
225 2157 SEIGNEURAY-GOULETTE PEGGY BEAUFAY 01:12:01
226 1983 QUAEYBEUR SEBASTIEN CUISSAI 01:12:02
227 774 DUVAL ALEXANDRE DAMIGNY 01:12:04
228 1484 LEPANNETIER VINCENT ARGOUGES 01:12:05
229 1729 MONGREVILLE RAPHAEL FRESNE L’ARCHEVEQUE 01:12:07
230 1470 LEMESLE JEREMY NECY 01:12:09
231 447 CHARTRAIN BRUNO LE GUE DE LA CHAINE 01:12:10
232 1445 LEGRET PATRICK CHANGE 01:12:12
233 1407 LECLERC WILLY SAINT QUENTIN 01:12:13
234 2162 SEPCHAT ALEXIS VERETZ 01:12:19
235 1953 POUILLAS FREDDY SAINT SULPICE LE VERDON 01:12:22
236 972 GESLIN ANTHONY CHÂTEAU GONTIER 01:12:25
237 1316 LANGLOIS DENIS STAINS 01:12:28
238 606 DAVOUST JEROME ALENCON 01:12:30
239 1098 GUILLEMETTE OLIVIER SAINT-SYLVAIN 01:12:34
240 254 BONDIS CHRISTIAN AUBUSSON 01:12:44
241 239 BLOTTIERE MAXIME SAVIGNE L’EVEQUE 01:12:46
242 2066 ROCHELLE MAXIME ECOUVES 01:12:48
243 247 BOIS EMMANUEL CHERRE 01:12:48
244 1840 PAVARD GEORGES GESNES LE GANDELIN 01:12:52
245 1833 PATTIER PETER HESLOUP 01:12:59
246 1405 LECHEVALLIER ARNAUD IRREVILLE 01:12:59
247 1403 LECHERBONNIER JEREMY SAINT ROCH 01:12:59
248 2125 SALLES XAVIER LA CHAPELLE PRES SEES 01:13:03
249 332 BRAULT NICOLAS OISSEAU LE PETIT 01:13:03
250 1751 MORIN MANUEL SAINT GERMAIN LA CAMPAGNE 01:13:03
251 2205 TACHEAU DAMIEN GESNES LE GANDELIN 01:13:07
252 934 GAUDOU STEPHANE BEAUCHE 01:13:10
253 594 DA-GRACA DOMINIQUE FYE 01:13:11
254 1759 MOULIN BRUNO MULSANNE 01:13:12
255 1876 PETIT JONATHAN SIERVILLE 01:13:13
256 1415 LECUYER AURELIEN FALAISE 01:13:16
257 971 GESBERT EMMANUEL ORCHAISE 01:13:21
258 2210 TAMISIER ARNAUD CONDE SUR SARTHE 01:13:23
259 1605 MAEL YACOB ERYTHREEN 01:13:24
260 1967 POUTEAU CHRISTOPHE BONCHAMP 01:13:24
261 1995 RAFIK BRAHIM LA FERTE MACE 01:13:25
262 355 BRUNEAU JOCELYNE BALLAN MIRE 01:13:29
263 2320 VIGAN BRUNO MONDEVILLE 01:13:29
264 1339 LE BLAIS PHILIPPE TROARN 01:13:31
265 2019 RENAUDIN JEAN-PIERRE DAMIGNY 01:13:31
266 1586 LOUINEAU SEBASTIEN BRIOUZE 01:13:31
267 627 DEGUY DAVID FRANCHEVILLE 01:13:32
268 1798 OLIVEAU WILFRIED MORTAGNE AU PERCHE 01:13:34
269 368 CADERON HERVE STAINS 01:13:35
270 85 AUBRY ANTOINE ALENCON 01:13:36
271 1981 PUISSET HUGO ALENCON 01:13:36
272 1698 MERCIER NICOLAS MARLY LE ROI 01:13:39
273 480 CHEVALLIER ERIC OUILLY DU HOULEY 01:13:40
274 2123 SALLARD SERGE LE MANS 01:13:40
275 783 DUVENT CHRISTOPHE MONTGAROULT 01:13:42
276 1950 POTTIER SEBASTIEN LA LANDE PATRY 01:13:51
277 330 BRAME OLIVIER BERTEAUCOURT LES THENNES 01:13:54
278 2158 SEINGIER ROMAIN COURGEOUT 01:13:54
279 1100 GUILLERME JEAN-MARC SAVIGNE L’EVEQUE 01:13:55
280 1810 OTMANE FARID SAINT GERMAIN DU CORBEIS 01:13:56
281 976 GICQUEL FATI STAINS 01:13:57
282 1574 LLOBEL ALEXIS SAINT HILAIRE DE BRIOUZE 01:13:58
283 612 DE BOUARD JEAN THONON LES BAINS 01:14:00
284 116 BARBIER FABIEN JANZE 01:14:03
285 652 DELPHIN DAMIEN SAINT DENIS EN VAL 01:14:03
286 753 DUHAUSSAY FABIEN CARENTAN 01:14:04
287 139 BAUDOIN PASCAL LONRAI 01:14:05
288 58 ALIMECK TONY MAIZIERES 01:14:05
289 2222 TERNOIS XAVIER HOUPPEVILLE 01:14:06
290 2097 ROUELLE CHRISTIAN SARCEAUX 01:14:07
291 2100 ROULLEAUX BENOIT CAEN 01:14:07
292 602 DASILVA ANTONIO CAEN 01:14:07
293 1881 PEUDUPIN DOMINIQUE SAINT CHRISTOPHE DU LIGNERON 01:14:09
294 1442 LEGRAND HENRI SAINT HILAIRE DU HARCOUET 01:14:13
295 2263 TRIFAUT SEVERINE FRESNAY SUR SARTHE 01:14:14
296 1176 HIRON MATHIAS SEES 01:14:16
297 209 BIEUZENT CHRISTOPHE BAGNOLES DE L’ORNE 01:14:23
298 1615 MAINGUY BRUNO LOMBRON 01:14:26
299 343 BRINQUIS STEPHANE GAVRUS 01:14:27
300 647 DELAVILLE JEAN-MICHEL LA CROIX SAINT LEUFROY 01:14:28
301 2224 TETU THIERRY ECOMMOY 01:14:29
302 1513 LEROUX DAVID BETTON 01:14:32
303 1268 KERHUEL THIERRY FRESNAY SUR SARTHE 01:14:32
304 2306 VERDIERE SOPHIE MONT PRES CHAMBORD 01:14:32
305 1216 JACQUELINE DAVID PARCE SUR SARTHE 01:14:33
306 1074 GUERIN LAURENT SAINT CALAIS DU DESERT 01:14:33
307 2318 VIDALIC YURI ARGENTAN 01:14:34
308 1077 GUERIN STEPHANE LAVAL 01:14:34
309 325 BOUVIER PIERRE-ARMAND DREUX 01:14:37
310 1591 LOUVEAU ALEXANDRE PARIS 01:14:39
311 1994 RADIGUE JOSSELIN SAINT LÔ 01:14:39
312 335 BRESTEAUX JEAN-CHRISTOPHE LIGNIERES LA CARELLE 01:14:41
313 1773 NEROLLE MYRIAM HEROUVILLE SAINT CLAIR 01:14:45
314 1120 HAMEL JEAN-YVES CHERBOURG EN COTENTIN 01:14:45
315 2258 TREHARD CLAUDE MAYENNE 01:14:51
316 853 FOUCHER PHILIPPE LE RIBAY 01:14:51
317 1489 LEPILEUR FRANCOIS FRENES 01:14:51
318 267 BOTTRAS DAMIEN BONNETABLE 01:14:53
319 1878 PETIT ROMAIN ALENCON 01:14:53
320 2212 TAUPIN BENOIT ALENCON 01:14:54
321 289 BOULENT DIDIER LE HOUSSEAU BRETIGNOLLES 01:14:57
322 106 BAMAS LUDOVIC BLONVILLE SUR MER 01:14:58
323 1051 GRANDIN FRANCK FALAISE 01:15:01
324 1321 LARDEUX JULIEN SOEURDRES 01:15:03
325 535 CONSTANTIN JEAN-YVES THORIGNE SUR DUE 01:15:03
326 1879 PETTRON SAMUEL MENIL ERREUX 01:15:05
327 1182 HONORE BERTRAND FYE 01:15:06
328 849 FOUBERT JEAN-MARIE LA LACELLE 01:15:06
329 464 CHESNEAU ALEXANDRE CHAMPAGNE 01:15:07
330 548 CORNEAU ROLAND LE MANS 01:15:09
331 1451 LELIARD BRUNO LA CHAPELLE D’ANDAINE 01:15:09
332 1081 GUESNEROT JEREMY SAI 01:15:11
333 861 FOUQUERAY DAVID LAIGNE EN BELIN 01:15:12
334 178 BENOIST STEPHANE SAINTE MARGUERITE SUR DUCLAIR 01:15:13
335 962 GERMAIN JEAN-PIERRE SOUILLE 01:15:13
336 987 GIRARD ERIC ARGENT SUR SAULDRE 01:15:14
337 1109 GUION STEPHANE THORIGNE SUR DUE 01:15:15
338 1982 QUAEYBEUR FRANCK SAINT DENIS EN VAL 01:15:15
339 2237 THOMAS SEBASTIEN SAINT LANGIS LES MORTAGNE 01:15:15
340 1675 MAUDUIT ARNAUD SANNOIS 01:15:16
341 2227 THERESE STEPHANE BOURGUEBUS 01:15:18
342 1093 GUICHETEAU FABRICE GOND PONTOUVRE 01:15:19
343 2226 THEPAULT FRANCK OUVILLE L’ABBAYE 01:15:21
344 1311 LANDRY ALEXIS FLEURY SUR ORNE 01:15:22
345 1333 LAURENT DANIEL THAON 01:15:22
346 1312 LANDRY ERIC CAIRON 01:15:22
347 216 BIGRE MICKAEL SAINT GERVAIS DU PERRON 01:15:24
348 1844 PECQUEUR STEVE BERD’HUIS 01:15:26
349 2051 ROBILLARD MAXIME LA BACONNIERE 01:15:29
350 231 BLANDIN SAMUEL MULSANNE 01:15:29
351 1360 LE RIGUER HERVE BALAZE 01:15:30
352 195 BESNIARD JULIEN BAGNOLES DE L’ORNE 01:15:31
353 1556 LIARD GUILLAUME LANGRUNE SUR MER 01:15:31
354 1565 LIGNEUL CHRISTELLE LOUPLANDE 01:15:31
355 2110 ROUYAU JEROME TRANGE 01:15:31
356 624 DECLERCK HUGO ALENCON 01:15:33
357 1862 PERRIER JEAN-MICHEL ETIVAL LES LE MANS 01:15:34
358 1108 GUINOT EMMANUEL MAHERU 01:15:34
359 508 COCHIN DONALD SAINT PÈRE SUR LOIRE 01:15:35
360 948 GAUTIER ERIC LOMBRON 01:15:36
361 2049 ROBICHON LUDOVIC ECOUCHE 01:15:37
362 2297 VAUDORE VINCENT AUBIGNY SUR NERE 01:15:37
363 2034 RICHOMME BASTIEN VERSON 01:15:39
364 118 BARDET AGLAE CAEN 01:15:39
365 1236 JOEL FABIEN ALENCON 01:15:40
366 2088 ROSIER MICHAËL LA CHAPELLE D’ANDAINE 01:15:41
367 1633 MARCHAND GUILLAUME AHUILLE 01:15:44
368 1900 PIERRE LUDOVIC MAYENNE 01:15:45
369 1554 LHOTELLIER FLORIAN ALENCON 01:15:45
370 1353 LE PICARD JEAN-DAVID FYE 01:15:46
371 1358 LE PRIOL THIERRY LA CHAPELLE SAINT FRAY 01:15:47
372 1927 PONT JEAN-PASCAL SAINTE GEMME MORONVAL 01:15:48
373 1178 HISZ BERTRAND LE FRESNE CAMILLY 01:15:48
374 1221 JARRY ALAIN TESSE LA MADELEINE 01:15:48
375 759 DUPONS DOMINIQUE LA FERTE MACE 01:15:49
376 1243 JOUANNE MARIE-CLOTILDE VERSON 01:15:50
377 1118 HAMEL FREDERIC FILLE SUR SARTHE 01:15:50
378 2253 TOUSE ERIC ECOUVES 01:15:51
379 312 BOUSSELET JOËL BOURG LE ROI 01:15:51
380 232 BLIN ANTOINE VIMOUTIERS 01:15:52
381 1931 PORTAIS HENRI SEES 01:15:54
382 1508 LERAY MICHEL RIVES D’ANDAINE 01:15:56
383 334 BREHIN PATRICK LOUVIGNE 01:15:58
384 500 CLAUS PHILIPPE MOULT 01:15:58
385 1937 POTEAU SYLVAIN LE MANS 01:15:59
386 946 GAUTIER CHRISTOPHE LONLAY L’ABBAYE 01:15:59
387 748 DUFORT ARNAUD LAVAL 01:16:02
388 2240 TILLET ALAIN FRESNAY LE SAMSON 01:16:04
389 2039 RIGOUIN STEPHANE MELLERAY LA VALLEE 01:16:04
390 1555 LIAGRE STEPHANE SAINT OUEN SUR ITON 01:16:06
391 144 BAUDRY CAROLINE FONTENAY SOUS BOIS 01:16:06
392 1455 LEMAIRE REMI COULOMBS 01:16:10
393 2004 RALU BENOIT LA FERTE MACE 01:16:12
394 316 BOUTET BENJAMIN LA FERTE MACE 01:16:14
395 657 DENIS KEVIN HEUDEBOUVILLE 01:16:15
396 501 CLEMENT CHRISTOPHE YVRE L’EVEQUE 01:16:17
397 505 CLEMENT SIMON YVRE L’EVEQUE 01:16:17
398 2023 RENOU BENJAMIN SAINT OUEN DE MIMBRE 01:16:19
399 301 BOURGES JULIEN SAINT CONTEST 01:16:19
400 1262 JULES RENAUD ALENCON 01:16:20
401 1787 NOIR ALEXANDRE HEROUVILLE SAINT CLAIR 01:16:23
402 991 GIRARD VICTORIEN AUNOU SUR ORNE 01:16:25
403 1739 MONTI DIDIER DEMOUVILLE 01:16:26
404 2260 TRICHET CELINE CHARTRES 01:16:27
405 99 BAGLIN SYLVAIN SURESNES 01:16:30
406 981 GILOUARD JERÔME LE MANS 01:16:33
407 520 COLLET ADRIANO CONDE SUR SARTHE 01:16:33
408 283 BOUL JULIEN SOUGE LE GANELON 01:16:34
409 1292 LALANDE JEREMY MOULAY 01:16:35
410 245 BOIRE DIDIER REUX 01:16:35
411 2041 RIOUL OLIVIER JUVIGNY SOUS ANDAINE 01:16:35
412 1600 LUBIN ARNAUD BELGIQUE 01:16:37
413 1662 MARTIN ALEXANDRA BLAINVILLE SUR ORNE 01:16:39
414 1634 MARCOTTE PHILIPPE VIERVILLE SUR MER 01:16:42
415 1148 HELIE ALEXANDRE SAINT LANGIS LES MORTAGNE 01:16:42
416 882 FROMAGE OLIVIER VERSON 01:16:43
417 840 FOKKER DONAVAN GAPREE 01:16:44
418 1877 PETIT LAURENT LONRAI 01:16:44
419 134 BASLE JEROME MARTIGNE SUR MAYENNE 01:16:46
420 1822 PAPILLON DAVID SAINT PIERRE DES NIDS 01:16:46
421 1340 LE BRUN XAVIER RUAUDIN 01:16:46
422 581 CRUCHET LAURENT LE MANS 01:16:46
423 2300 VAUGON JEAN-DAMIEN ALENCON 01:16:47
424 589 DABOUINEAU MICHEL SAINT BIEZ EN BELLIN 01:16:48
425 1217 JACQUET THIERRY ALENCON 01:16:49
426 675 DESLOGES CYRIL SAINT GERMAIN DU CORBEIS 01:16:49
427 1385 LEBON SANDRINE ALENCON 01:16:50
428 1244 JOUAULT PASCAL VERNON 01:16:52
429 1737 MONTAIS BENOIT FORMENTIN 01:16:52
430 420 CHAMPION MARC LE MANS 01:16:53
431 764 DURAND AURELIEN LE MANS 01:16:54
432 1571 LIOT ROMAIN AMBRIERES LES VALLEES 01:16:55
433 552 COSNARD ROMAIN GELLAINVILLE 01:16:56
434 2007 RAMOND OLIVIER LONRAI 01:16:56
435 86 AUDUREAU DAVID SAINT HILAIRE LE CHATEL 01:16:56
436 1241 JOSSET THIERRY MONT CAUVAIRE 01:16:56
437 1673 MAUBOUSSIN OLIVIER MULSANNE 01:16:57
438 1479 LEMONNIER MATHIEU PARIS 01:16:57
439 496 CIROU MICKAEL MORTAGNE AU PERCHE 01:17:06
440 1691 MELLOT JEAN-BAPTISTE CONDE SUR SARTHE 01:17:06
441 354 BRUNEAU CHRISTOPHE PARNE SUR ROC 01:17:08
442 1527 LESEIGNEUR ALEXANDRE CHEUX 01:17:08
443 2344 ZUNINO LUIGI MORTAGNE AU PERCHE 01:17:09
444 1329 LAUNAY CYRIL AVENAY 01:17:09
445 1035 GOULVENT MICKAEL LE MANS 01:17:10
446 411 CHABLE MICHAEL CAUVIGNY 01:17:11
447 956 GELEE GERARD L’AIGLE 01:17:12
448 1427 LEFEVRE LUDOVIC BERVILLE EN ROUMOIS 01:17:15
449 205 BIDAULT BENOIT LE MANS 01:17:19
450 1343 LE COSSEC YVES LA BAZOGE 01:17:20
451 1714 MEUNIER FRANCK GESNES LE GANDELIN 01:17:20
452 2274 VALABLE JEROME GOULET 01:17:21
453 1817 OZOUF PHILIPPE EQUEURDREVILLE 01:17:22
454 2336 WENTS CHRISTOPHE LE MANS 01:17:24
455 17 FOURNIER VALERIE ALENCON 01:17:24
456 2167 SERRE PASCAL BONNETABLE 01:17:27
457 1853 PERDEREAU STEPHANE FYE 01:17:28
458 2131 SANDRE SAMUEL LE MANS 01:17:28
459 1949 POTTIER MORGAN CEAUCE 01:17:31
460 2221 TERNOIS JEROME HOUPPEVILLE 01:17:33
461 838 FLOTTE JEAN-LUC LEVALLOIS PERRET 01:17:35
462 1247 JOUIE DOMINIQUE LA BAZOGE MONTPINCON 01:17:36
463 1279 LACOSTE MARTIN ARGENTAN 01:17:37
464 791 EMONNOT RUDY BUTRY SUR OISE 01:17:37
465 885 FURON LOÏC LAPENTY 01:17:37
466 105 BALRICK MAXIME LE MANS 01:17:38
467 2079 ROMAIN****** STEPHANE******* ARGENTAN 01:17:38
468 1171 HEURTEBISE JEROME LE MANS 01:17:38
469 280 BOUILLON ANDRE AUBE 01:17:40
470 1917 POIRIER STEPHANE LE MANS 01:17:40
471 2264 TRIGUEL NICOLAS ALENCON 01:17:44
472 1082 GUESNEROT SAMUEL COLOMBIERS 01:17:44
473 667 DESAUNAY LAURENT SAINT PIERRE DES BOIS 01:17:44
474 1655 MARSAC FRANCK ARCONNAY 01:17:48
475 775 DUVAL BENOIT SAINTE HONORINE LA GUILLAUME 01:17:51
476 1680 MAUPAS EMERIC CLECY 01:17:53
477 1290 LAIR LIONEL SAINT PIERRE DU BU 01:17:55
478 1907 PLANCHAIS ARNAUD ARGENTAN 01:17:55
479 1266 KAUS FREDERIC LA FLECHE 01:17:56
480 922 GASNIER DAMIEN SAINTE SCOLASSE SUR SARTHE 01:17:56
481 1234 JOANNIER PATRICK SAINT SIMEON 01:17:58
482 1083 GUEUDRE FRANCK NEUILLY LE BISSON 01:18:00
483 1622 MANCEL SYLVAIN NEUILLY LE BISSON 01:18:00
484 1815 OUTTERS JEAN-MARC ALENCON 01:18:03
485 2234 THOMAS JOHAN GESNES LE GANDELIN 01:18:04
486 458 CHAUVIN THIERRY ECOUVES 01:18:06
487 576 CROCOMO WILFRID GIBERVILLE 01:18:07
488 272 BOUCHEZ JULIEN LISIEUX 01:18:08
489 1871 PESLIER PASCAL BONCHAMP LES LAVAL 01:18:08
490 222 BLAIS LAURENT SAINT PIERRE LES ELBEUF 01:18:08
491 851 FOUCAULT MICHEL VILLAINES LA JUHEL 01:18:08
492 281 BOUILLY ADRIEN CINTHEAUX 01:18:11
493 1406 LECLECH DIMITRI CHAILLOUE 01:18:12
494 2308 VERHALLE SAMUEL BAZOCHES SUR HOENE 01:18:14
495 1826 PARMENTIER FLORENT L’AIGLE 01:18:15
496 580 CROUSEILLES STEPHANE AUBE 01:18:15
497 252 BOMME SYLVAIN ERBRAY 01:18:18
498 923 GASNIER GERARD SAVIGNE L’EVEQUE 01:18:19
499 785 EDELINE THOMAS DOUVRES LA DELIVRANDE 01:18:20
500 1383 LEBOIS DAVID FONTENAI LES LOUVETS 01:18:20
501 1608 MAILLARD ALAIN LASSAY LES CHATEAUX 01:18:20
502 1640 MARIE ARNAUD IFS 01:18:21
503 380 CAMUS MICKAËL MONDEVILLE 01:18:21
504 2050 ROBILLARD FRANCK FLERS 01:18:22
505 1367 LE SAUX SANDRINE PREVAL 01:18:24
506 1069 GUEN ALEXANDRE MOULINS LE CARBONNEL 01:18:24
507 230 BLANCO CIUDAD JUAN FRANCHEVILLE 01:18:25
508 1181 HONORE ALAIN SEES 01:18:27
509 2313 VESQUE SEBASTIEN LARRE 01:18:28
510 1757 MOUCHEL MICHAEL IRAI 01:18:31
511 82 ASSELIN LOÏC AUNAY SUR ODON 01:18:32
512 1639 MARIE ANTHONY SAINT MARTIN DE FONTENAY 01:18:33
513 426 CHANTEPIE DAMIEN BERUS 01:18:33
514 622 DECAN ALAIN SEES 01:18:33
515 2037 RIEUX MICHEL GOULET 01:18:34
516 1471 LEMIERE JOHANN BAILLEAU LE PIN 01:18:35
517 1085 GUIBE CHRISTIAN CEAUCE 01:18:35
518 1046 GOYER-THIERRY FABRICE FRESNAY SUR SARTHE 01:18:36
519 1264 JUMELLE BERTRAND SPAY 01:18:36
520 307 BOURLARD JULIEN CONDE SUR SARTHE 01:18:37
521 1743 MOREAU PATRICK BRIOLLAY 01:18:38
522 1291 LAKAS PATRICE TOURY LURCY 01:18:38
523 62 ALLAIRE PHILIPPE GRAND PARIGNY 01:18:38
524 635 DELANDE SEBASTIEN SAINT MARCEAU 01:18:39
525 2259 TRETON YOHANN SAINT GERMAIN SUR SARTHE 01:18:39
526 1028 GOUGEON VINCENT MAYENNE 01:18:40
527 371 CADOREL YVES ROËZE SUR SARTHE 01:18:41
528 2127 SALOUX JEAN-FRANCOIS ECOUCHE LES VALLEES 01:18:43
529 960 GERARD DYLAN LISIEUX 01:18:43
530 1425 LEFEVRE DAMIEN LE CHEVAIN 01:18:45
531 405 CERNAY YAN MOULINS LA MARCHE 01:18:45
532 2296 VAUDOLON NICOLAS ARGENTAN 01:18:46
533 1159 HERIN DIDIER MAYET 01:18:46
534 780 DUVAL JULIEN MATHIEU 01:18:46
535 1658 MARTEAU VINCENT TASSE 01:18:46
536 1861 PERRIER CHRISTOPHE GANDELAIN 01:18:47
537 1638 MARIAGE KEVIN SAINT LAURENT DU VAR 01:18:48
538 403 CERNAY GWENAEL ALENCON 01:18:48
539 1530 LESELLIER LOIC OISSEAU 01:18:49
540 2200 SUZANNE XAVIER SAINT CORNIER DES LANDES 01:18:50
541 1482 LEONARD STEPHANE SAINT PIERRE DES NIDS 01:18:50
542 16 AURY SOPHIE COURTOMER 01:18:51
543 2137 SAUCET SEBASTIEN SAINT GEORGES DU ROSAY 01:18:53
544 1029 GOUGOUMIS THOMAS L’AIGLE 01:18:54
545 1469 LEMESLE DOMINIQUE GIBERVILLE 01:18:55
546 1380 LEBLANC ERIC CIRAL 01:18:55
547 706 DOUET CHRISTOPHE DISTRE 01:18:56
548 188 BERRIER FREDERICK DAMIGNY 01:18:57
549 511 COGNEAU KARINE MAMERS 01:18:58
550 1904 PINCON HERVE ORGERES 01:18:59
551 1772 NEGGAZ AHMED LURAY 01:18:59
552 95 AYOUL YOHANN VERSAILLES 01:18:59
553 1273 KOSMALA ALAIN LE MANS 01:19:02
554 376 CAILLY FRANCOIS ALENCON 01:19:03
555 736 DUBREUIL OLIVIER PLESCOP 01:19:04
556 1829 PASQUIER SYLVAIN CREVECOEUR EN AUGE 01:19:05
557 1940 POTIER FRANCOIS ALENCON 01:19:07
558 1245 JOUAULT STEPHANE MONTIGNE LE BRILLANT 01:19:09
559 856 FOUILLARD JEAN-JACQUES SEES 01:19:10
560 688 DEVAUX CHRISTIAN MAY SUR ORNE 01:19:12
561 1988 QUIGNETTE STEPHANE CHERBOURG EN COTENTIN 01:19:13
562 218 BISSON CHARLES HELOUP 01:19:13
563 1977 PROD HOMME MICHEL JUILLE 01:19:14
564 2117 RUEL BRUNO MOULAY 01:19:17
565 52 ADRIANSEN SIMON LE MANS 01:19:17
566 2182 SINAEVE ERIC SAINT JEAN DE FOLLEVILLE 01:19:18
567 386 CARLE ERIC PONT DE METZ 01:19:20
568 540 CORDIER GWENAËL BONNETABLE 01:19:22
569 795 EPINEAU GERALD COURGAINS 01:19:23
570 1492 LEPINAY ANTONY HESLOUP 01:19:23
571 1338 LE BIHAN ANTOINE FLEURY SUR ORNE 01:19:27
572 1989 QUINTON THIERRY GESNES LE GANDELIN 01:19:31
573 2267 TUDOCE FABIEN CHATEAUNEUF 01:19:31
574 1694 MENAND ANTHONY CHERRE 01:19:33
575 1791 NORTUR FRANCK AUBE 01:19:34
576 2314 VETILLARD DOMINIQUE SAINT LANGIS LES MORTAGNE 01:19:34
577 2130 SANDERS LAETITIA TORDOUET 01:19:35
578 1558 LIEGEOIS THIERRY LA FERTE BERNARD 01:19:36
579 2145 SAVIO CHRISTOPHE SAINT AVERTIN 01:19:38
580 660 DENIS SERGE VILLAINES LA JUHEL 01:19:40
581 1008 GODIN MICKAEL DAMIGNY 01:19:42
582 1307 LANDEMAINE JACQUES LE FRESNE CAMILLY 01:19:42
583 1121 HAMEL SEBASTIEN ANNEBAULT 01:19:43
584 1064 GRU LAURENT FLERS 01:19:44
585 1597 LOUVET ALAIN TINCHEBRAY 01:19:44
586 1305 LANDAIS STEPHANE CAEN 01:19:46
587 1036 GOUNY LAURENT ESPINS 01:19:48
588 70 ANFRAY CYRILLE RENNES 01:19:48
589 687 DEVANNES FRANCOIS CHOLET 01:19:49
590 1375 LEBESLE GILBERT BALLON 01:19:49
591 905 GARANGER LAURENT MONTIGNE LE BRILLANT 01:19:50
592 18 COINUS AURELIE BIEVILLE BEUVILLE 01:19:51
593 1298 LAMBERT PHILIPPE MUZILLAC 01:19:51
594 973 GESRET LUCIEN ECOUVES 01:19:53
595 1735 MONSALLIER ANDRE ALENCON 01:19:53
596 123 BARIL NICOLAS ARGENTAN 01:19:55
597 2089 ROSSIGNOL GILLES ESQUAY NOTRE DAME 01:19:55
598 361 BUNDUKI YUMA SAID ALENCON 01:19:56
599 1047 GRAFFIN JONATHAN LE MELE SUR SARTHE 01:19:58
600 1134 HARIVEL ALEX ARGENTAN 01:19:58
601 407 CHABAUD NICOLAS NEUILLY LE BISSON 01:19:59
602 694 DIESSLER HANS TORDOUET 01:20:00
603 1189 HOUEL CLEMENT BARON SUR ODON 01:20:00
604 65 ALVES HUGO CAEN 01:20:00
605 306 BOURGOUIN STEPHANE BRIOSNE LES SABLES 01:20:00
606 1606 MAHAUT RICHARD ASSE LE BOISNE 01:20:01
607 915 GARNIER EMMANUEL ALENCON 01:20:01
608 949 GAUTIER ERWANN AUNAY SUR ODON 01:20:01
609 387 CARPENTIER JOACKIM CARENTAN 01:20:02
610 2236 THOMAS SANUEL MONTHUCHON 01:20:03
611 1888 PICHARD THIBAUD JOUE L’ABBE 01:20:05
612 145 BAUDRY LAURENT ETIVAL LES LE MANS 01:20:07
613 1938 POTET LUDOVIC IGE 01:20:08
614 15 POTET EDWIGE IGE 01:20:09
615 2281 VALLOT VANESSA CARENTAN 01:20:09
616 236 BLONDEL ALEXIS JOUE DU BOIS 01:20:11
617 114 BARBEY REGIS LA FERTE MACE 01:20:11
618 2017 RENAUDET MAXIME LILLE 01:20:12
619 1173 HEUZE GILLES BRETTEVILLE SUR ODON 01:20:12
620 975 GIBON HERVE JUVIGNY SOUS ANDAINE 01:20:13
621 1595 LOUVEAU STEPHANE LA FERRIERE BOCHARD 01:20:13
622 1669 MASSON BENOIT BARENTON 01:20:14
623 2327 VILLETTE JORDAN MAYENNE 01:20:18
624 381 CANET MICHEL CONDE SUR SARTHE 01:20:18
625 1020 GORET CANDICE MOULINS LA MARCHE 01:20:19
626 1477 LEMONNIER CEDRIC HESLOUP 01:20:19
627 462 CHEREL CYRIL ALENCON 01:20:20
628 1510 LERICHE GILLES LA LACELLE 01:20:20
629 1506 LERAY ANTONY ERNEE 01:20:23
630 2074 ROINNE RODOLPHE SAINT JEAN D’ASSE 01:20:23
631 2209 TALBOT LUDOVIC HAUTERIVE 01:20:25
632 672 DESFEUX DIDIER SAINT SULPICE SUR RISLE 01:20:26
633 2201 SZMURLO STANISLAW ALENCON 01:20:27
634 698 DJAPITE KOHE CHRISTIAN ARGENTAN 01:20:27
635 686 DEVANNES ERIC VALFRAMBERT 01:20:28
636 1289 LAILLE PATRICK MESSEI 01:20:29
637 1215 ILLAND FREDERIC MAYENNE 01:20:29
638 1544 LETOURNEAU CHANTAL SAINT DENIS SUR SARTHON 01:20:33
639 727 DUBOIS DAVID TREVIERES 01:20:34
640 897 GAND REGIS DAMIGNY 01:20:37
641 2189 SOREL MAXIME CERISE 01:20:37
642 1419 LEDUC QUENTIN CAEN 01:20:37
643 1725 MOISSON GERALD FONTENAY LE MARMION 01:20:37
644 1344 LE DANTEC GAETAN FILLE SUR SARTHE 01:20:38
645 913 GARNIER CHRISTELLE LE HAM 01:20:38
646 563 COUPRIT FABRICE CAEN 01:20:38
647 1549 LEVEEL SABRINA COLOMBELLES 01:20:39
648 1869 PERTANT BRUNO TINCHEBRAY 01:20:40
649 908 GARCIA SUAREZ JULES DAMVILLE 01:20:41
650 351 BROUARD STEPHANE MAYET 01:20:41
651 1196 HUBERT JACK VENDOME 01:20:42
652 2331 VOLONDAT GILDAS BRECEY 01:20:43
653 1231 JESTIN JEAN-FRANCOIS ALENCON 01:20:43
654 1055 GRECO JEAN-MICHEL GAVRUS 01:20:43
655 2270 TURPIN NICOLAS FALAISE 01:20:43
656 1529 LESEIGNEUR DIDIER SAINT SULPICE SUR RISLE 01:20:44
657 512 COGNEAU SAMUEL MAMERS 01:20:46
658 191 BERTHOME PASCAL CERISE 01:20:46
659 556 COSSON FRANCKY ANGERS 01:20:47
660 811 FAVRELLE FRANCK SAINT RIGOMER DES BOIS 01:20:47
661 1636 MARGUERITE AUDREY PACE 01:20:47
662 1253 JOURDAN OLIVIER ALENCON 01:20:48
663 256 BONDU BENOIT PARIS 01:20:49
664 2084 ROSE DAMIEN LE MERLERAULT 01:20:49
665 249 BOITTIN STEPHANE MONCE EN BELIN 01:20:50
666 1553 LEYS THIERRY BERNAY 01:20:51
667 799 ESNARD YANNICK ALENCON 01:20:53
668 1704 MESIRARD ALBAN VALFRAMBERT 01:20:53
669 966 GERTHOFFER LAURENT LA CHAPELLE SAINT AUBIN 01:20:54
670 1823 PAPIN GAYLORD LE BOURGNEUF LA FORET 01:20:55
671 1670 MASSY YOANN ESSAY 01:20:56
672 534 CONSTANT JOSEPH SAINT REMY DE SILLE 01:20:57
673 2135 SASSIER ERIC CONDE SUR SARTHE 01:20:58
674 1724 MOISSERON PASCAL LE NEUFBOURG 01:20:58
675 953 GAUTUN CHRISTOPHE CONDE SUR SARTHE 01:21:00
676 1166 HERVE LAURENT SAINT JEAN DE LA FORET 01:21:01
677 870 FOURNERIE THOMAS TUFFE 01:21:03
678 1705 MESLAY ROBIN AMBRIERES LES VALLEES 01:21:04
679 1758 MOULIN BENOIT SAINT ANTONIN DE SOMMAIRE 01:21:05
680 545 CORMIER STEPHANIE SEES 01:21:06
681 1175 HIRARD STEPHANE SAINTE CROIX GRAND TONNE 01:21:09
682 818 FERNANDEZ BRYAN BESSE SUR BRAYE 01:21:09
683 1726 MOISY REGIS SAINT CYR LA ROSIERE 01:21:09
684 1651 MARQUET ALEXANDRE MORTAGNE AU PERCHE 01:21:11
685 367 CADEAU NICOLAS EVRON 01:21:13
686 1512 LEROUX CYRIL CONNERRE 01:21:14
687 320 BOUVET ARNAUD COULAINES 01:21:14
688 2022 RENIAUME SAMUEL ALENCON 01:21:16
689 75 ANTOINE REMI COULAINES 01:21:16
690 1370 LE TOULLEC MICHEL SEES 01:21:16
691 702 DORGEOT PATRICE SAINT SULPICE SUR RISLE 01:21:17
692 1793 NOTRAMY STEPHANE CERISE 01:21:18
693 1944 POTIN SAMUEL DAMIGNY 01:21:19
694 88 AUMOITTE MICKAEL LA FERTE MACE 01:21:20
695 1388 LEBRETON ALAIN VERTOU 01:21:22
696 814 FENECH THOMAS ALENCON 01:21:22
697 204 BEZARD BEATRICE YVRE L’EVEQUE 01:21:22
698 314 BOUTEILLER SAMUEL CHANGE 01:21:24
699 542 CORDIER- LALLOUET BRUNO CONDE SUR SARTHE 01:21:24
700 1706 MESLAY SIMON MAYENNE 01:21:25
701 1886 PIAT ALAIN GAUVILLE 01:21:25
702 1303 LAMOTTE SIMON HABLOVILLE 01:21:26
703 2220 TERNOIS FREDERIC HOUPPEVILLE 01:21:26
704 1502 LERALU ALAIN FONTENAY LE PESNEL 01:21:27
705 1677 MAUGER JULIEN SAINT DENIS SUR SARTHON 01:21:27
706 310 BOUSSARD JEAN-MARC L’AIGLE 01:21:28
707 1557 LIBERGE OLIVIER VERSON 01:21:29
708 1577 LOISEL DIDIER SAINTE MARGUERITE EN OUCHE 01:21:30
709 866 FOURE EMILIE MAMERS 01:21:31
710 1101 GUILLES OLIVIER NUILLE LE JALAIS 01:21:32
711 2176 SIMON LUCAS L’AIGLE 01:21:36
712 1439 LEGORRE STEPHANE RAMBOUILLET 01:21:37
713 1951 POUCHARD MATTHIEU BELGIQUE 01:21:37
714 1348 LE GOUIL RONAN DAMIGNY 01:21:38
715 1649 MAROSIK TONY ALENCON 01:21:39
716 730 DUBOIS PATRICK DAMIGNY 01:21:39
717 1569 LION FABRICE ARNAGE 01:21:43
718 89 AUMOITTE NICOLAS LIGNEROLLES 01:21:43
719 1165 HERSANT PASCAL LA CHAPELLE ANTHENAISE 01:21:43
720 448 CHASSARD LINDA LONRAI 01:21:44
721 2081 RONDEAU BENOIT MIEUXCE 01:21:44
722 356 BRUNET GILLES HESLOUP 01:21:44
723 1962 POURIAU JEROME LA CHAPELLE DU BOIS 01:21:44
724 357 BRUNET GILLES LE MANS 01:21:44
725 451 CHATEL ERIC NEUILLY LE VENDIN 01:21:46
726 1218 JAEGHERS MICHAEL RUGLES 01:21:49
727 2174 SIGOGNE BRUNO SAINT JEAN SUR MAYENNE 01:21:50
728 1021 GORET JASMY MOULINS LA MARCHE 01:21:51
729 1448 LEKANE STEPHANE MARCHEMAISONS 01:21:52
730 1780 NICOLE BRUNO ESTREES LA CAMPAGNE 01:21:54
731 2103 ROUSSEAU ROMAIN DOUILLET LE JOLY 01:21:54
732 79 ARLOTTO SEBASTIEN ISSY LES MOULINEAUX 01:21:55
733 327 BOUVIER-MARTIN OLIVIER LE MANS 01:21:56
734 1805 OLLIVIER LAURENT ALENCON 01:21:56
735 762 DUPUY ERIC ALENCON 01:21:56
736 348 BROQUET CATHERINE SAINT GERMAIN D’ARCE 01:21:56
737 345 BROCHET** THOMAS OISSEAU LE PETIT 01:21:57
738 573 COUTURIER JEAN-CHARLES MAYENNE 01:21:58
739 848 FORTIER OLIVIER SARCEAUX 01:21:59
740 1889 PICHON PASCAL CHAMPAGNE 01:22:00
741 1716 MEZIERE SAMUEL LA MOTTE FOUQUET 01:22:01
742 2265 TROSSAIS CHRISTIAN JOSSELIN 01:22:01
743 1016 GOLLIARD JOACHIM MOULINS LE CARBONNEL 01:22:03
744 653 DEMORA HUGUES SAINTE MARGUERITE DES LOGES 01:22:04
745 1621 MALLET LOÏC MAMERS 01:22:04
746 1124 HAMON MICKAEL SAINT OUEN SUR MAIRE 01:22:05
747 445 CHARTIER NICOLAS BELFORET EN PERCHE 01:22:06
748 855 FOUILLARD JACKY SAINT BRICE DE LANDELLES 01:22:07
749 1414 LECROCQ JEREMY LE HAVRE 01:22:07
750 2119 RUSSEAU RENALD COULOMBIERS 01:22:08
751 2245 TONA AMAVI GARCELLES SECQUEVILLE 01:22:09
752 984 GIRARD ALEXIS LE MANS 01:22:10
753 1435 LEGENDRE BRICE VALFRAMBERT 01:22:10
754 645 DELAUNAY SYLVAIN SOULEUVRE EN BOCAGE 01:22:13
755 435 CHARBONNIER ROMUALD LE MANS 01:22:15
756 1362 LE ROUX BRUNO MULSANNE 01:22:15
757 1901 PIERRE MANUEL LE GUE DE LA CHAINE 01:22:16
758 1863 PERRIER LIONEL THIBERVILLE 01:22:17
759 554 COSNUAU LAURENE LYON 01:22:17
760 630 DELAHAYE PATRICK VANNES 01:22:18
761 2262 TRICHET SEBASTIEN BALLAN MIRE 01:22:19
762 662 DENIZART FABIEN LE MELE SUR SARTHE 01:22:21
763 1223 JAUNET CHRISTOPHE LES RAIRIES 01:22:21
764 1825 PARIS FRANCK BOSC ROGER EN ROUMOIS 01:22:22
765 2146 SBILE CHRISTOPHE MORTAGNE AU PERCHE 01:22:23
766 1774 NEVEUX SYLVAIN JAVRON LES CHAPELLES 01:22:23
767 2255 TOUTAIN ELODIE LIGNIERES ORGERES 01:22:24
768 1389 LEBRETON CHRISTOPHE LONRAI 01:22:24
769 539 CORDELIER QUENTIN CARROUGES 01:22:26
770 2029 RIBOT LAURENT VAAS 01:22:27
771 2106 ROUSSEL KARINE SAINT GERMAIN DE MONTGOMMERY 01:22:28
772 471 CHEVAL SOPHIE GLOS 01:22:28
773 331 BRARD ALAIN VALFRAMBERT 01:22:29
774 754 DUHOMME CORINNE CAMEMBERT 01:22:30
775 2269 TURCAN SYLVIE LA CHAPELLE D’ANDAINE 01:22:31
776 72 ANGER SEBASTIEN ALENCON 01:22:32
777 1437 LEGENDRE OLIVIER SAINT COSME EN VAIRAIS 01:22:33
778 248 BOISRAME PASCAL MAMERS 01:22:34
779 1576 LOINARD STEPHANE VERSON 01:22:34
780 1163 HEROUX MICKAËL OUISTREHAM 01:22:34
781 2000 RAINE OLIVIER LE MANS 01:22:37
782 1015 GOLLIARD GONNE MOULINS LE CARBONNEL 01:22:39
783 839 FOHR FRANCOIS CHEMIRE LE GAUDIN 01:22:39
784 634 DELANDE DIDIER VILLAINES LA JUHEL 01:22:39
785 1627 MANGUIN CEDRIC MAMERS 01:22:40
786 574 CRETOIS CYRIL FALAISE 01:22:41
787 758 DUPAS GILBERT ERNEE 01:22:42
788 131 BARREAU LUCIE MAYET 01:22:42
789 806 FATOUX EDDY ARGENTAN 01:22:43
790 136 BATTAIS ALAIN LE FERRE 01:22:44
791 609 DAVY DOMINIQUE SAINT PIERRE DES NIDS 01:22:45
792 1396 LECARDRONNEL ELODIE OCCAGNES 01:22:48
793 1895 PICOT DIDIER MOUEN 01:22:51
794 2185 SOLLIER CLAUDE SAINT GERMAIN DE MARTIGNY 01:22:52
795 641 DELARUE CHRISTIAN MOUEN 01:22:52
796 1190 HOULBERT CHRISTOPHE LE PAS 01:22:53
797 1589 LOUPIL STEPHANE CARROUGES 01:22:54
798 1918 POISSON CEDRIC DAMIGNY 01:22:54
799 1978 PROVOST ANTHONY BEAUMONT SUR SARTHE 01:22:55
800 931 GAUCHER REGIS ROMAGNY 01:22:56
801 879 FRIN YOANN ALENCON 01:22:57
802 495 CINTRAT MICHAEL SAINT VINCENT DES PRES 01:22:58
803 1075 GUERIN LOÏC VILLEMANDEUR 01:22:59
804 1926 PONCIN JOSEPH BAGNOLES DE L’ORNE 01:22:59
805 1585 LOTTIN JEROME FATINES 01:22:59
806 1421 LEFAUX MARC CONDE SUR SARTHE 01:23:00
807 1975 PRIEUR RENE SARGE LES LE MANS 01:23:00
808 1998 RAGOT CLAUDE SAINT MARS DU DESERT 01:23:02
809 305 BOURGOUIN BRUNO MONTFORT LE GESNOIS 01:23:04
810 2188 SOREL JEAN-CHRISTOPHE SEES 01:23:04
811 1905 PINTO FERNANDO CAEN 01:23:07
812 98 BADEUIL BENOIT ARGENTAN 01:23:07
813 1843 PECQUENARD DAMIEN MORTAGNE AU PERCHE 01:23:09
814 1519 LEROUX PATRICK OISSEAU 01:23:11
815 1379 LEBLANC BRUNO SAINT PATERNE 01:23:12
816 1434 LEGEAY-EPINEAU BRUNO CONGE SUR ORNE 01:23:13
817 2147 SCHERER CYRILLE ECOUVES 01:23:14
818 1777 NICOLAS ISABELLE LA FLECHE 01:23:15
819 1072 GUERIN JACQUES LE MANS 01:23:16
820 810 FAVREAU VERONIQUE LOCHES 01:23:17
821 773 DUTERTRE THIERRY SAINT GERMAIN DU CORBEIS 01:23:17
822 1776 NICOLAS ALEXIS LA FLECHE 01:23:17
823 1973 PREVOT PHILIPPE MORTREE 01:23:18
824 484 CHEVREUX STEPHANE LA FLECHE 01:23:18
825 533 CONSTANT FRANCK CHAMPSECRET 01:23:22
826 2143 SAUVAGE FRANCK LE MANS 01:23:23
827 1297 LAMBERT LOÏC HAMBERS 01:23:25
828 1284 LAGNEAU DAVID LA FERRIERE BOCHARD 01:23:26
829 813 FAY CHRISTIAN DINAN 01:23:26
830 2289 VASLET GUY ARGENTAN 01:23:27
831 1308 LANDEMAINE PIERRE BASTIAN SAINT GERMAIN DU CORBEIS 01:23:28
832 1322 LARGEN AXEL ARGENTAN 01:23:29
833 1934 PORTIER ALEXIS FAY 01:23:30
834 1356 LE POITEVIN STEPHEN BOULOGNE SUR MER 01:23:32
835 182 BERNARD GIANNI LA CHAPELLE PRES SEES 01:23:32
836 259 BONNIN HUBERT LAIGNE EN BELIN 01:23:33
837 909 GARDIE SYLVIE BAYEUX 01:23:34
838 2082 RONDEAU MICKAEL MAYENNE 01:23:34
839 104 BALOCHE PIERRE MENIL GONDOUIN 01:23:34
840 988 GIRARD SEVERINE BRETTE LES PINS 01:23:36
841 845 FONTAN ANTHONY CONDE SUR SARTHE 01:23:36
842 1040 GOURVENEC SEBASTIEN SAINT SAMSON DE LA ROQUE 01:23:37
843 393 CASTEL EMILIE BRETTEVILLE SUR ODON 01:23:38
844 766 DURAND JEROME CONDE SUR SARTHE 01:23:39
845 1965 POUSSIER ROMUALD SAINT LAURENT DE CONDEL 01:23:40
846 943 GAUMER YVES PIERREFITTE SUR SEINE 01:23:43
847 494 CHRETIEN JEAN-PIERRE CHÂTEAU DU LOIR 01:23:46
848 714 DRION JOSEPHINE ALENCON 01:23:48
849 184 BERNARD XAVIER MOULT 01:23:48
850 1813 OU-TA-LONG PIERRE-MAXIME ALENCON 01:23:49
851 94 AYOUL PATRICK ANDOUILLE NEUVILLE 01:23:50
852 1546 LEURETTE VIVIEN ESPINS 01:23:51
853 777 DUVAL FREDERIC TOUQUES 01:23:51
854 1129 HARDY BENOIT BOUCE 01:23:51
855 2032 RICHARD THIERRY LE HORPS 01:23:52
856 2016 REMANDE CYRIL AVOINE 01:23:52
857 1240 JOSSEAUME THOMAS FALAISE 01:23:53
858 697 DINGUIDAR ALEXANDRE LE MANS 01:23:54
859 643 DELAUNAY CHRISTINE MORTREE 01:23:55
860 664 DEROBERT RONALD ANDRIEU 01:23:55
861 207 BIDAULT PHILIPPE SAINT CLAIR DE HALOUZE 01:23:55
862 1515 LEROUX FABRICE LE MANS 01:23:57
863 153 BEAUGUION ALEXANDRE ALENCON 01:23:57
864 1867 PERSON EMMANUEL SAINT GERMAIN DU CORBEIS 01:23:57
865 1452 LELIARD SONIA LA CHAPELLE D’ANDAINE 01:23:57
866 255 BONDIS THIERRY FLERS 01:23:58
867 166 BELBOUCHI RAPHAËL NOGENT LE ROTROU 01:23:59
868 816 FERANDO JEAN-LOUIS MAYET 01:24:00
869 1687 MAZIER YVES LES ROTOURS 01:24:03
870 964 GERMAIN SYLVIE SOUILLE 01:24:03
871 225 BLAISE-MARTIN HENRI ECOUVES 01:24:04
872 1432 LEGATELOIS CHRISTOPHE IFS 01:24:04
873 1014 GOISNARD NICOLAS LOUE 01:24:05
874 1851 PENNEC YVES HERMINAL LES VAUX 01:24:06
875 941 GAULTIER RACHEL GESNES 01:24:07
876 740 DUCHEMIN THOMAS GESNES 01:24:07
877 1834 PAUL FRANCK ERAINES 01:24:08
878 1493 LEPINAY LUC SAINT PATERNE 01:24:09
879 2164 SEREY JEAN-FRANCOIS BUCEELS 01:24:09
880 130 BARREAU JEREMY PARIGNE SUR BRAYE 01:24:10
881 1331 LAUNAY JEAN-MICHEL ASSE LE BOISNE 01:24:10
882 1337 LAVOINE THIERRY VILLENEUVE EN PERSEIGNE 01:24:11
883 649 DELAVILLE VERONIQUE LA CROIX SAINT LEUFROY 01:24:12
884 724 DROUIN JIMMY SAINTE COLOMBE 01:24:13
885 1052 GRANGER ERIC BOULOIRE 01:24:14
886 1248 JOUIE SAMUEL SAINT GEORGES DU BOIS 01:24:15
887 1811 OUAKNIN ERIC PARIS 01:24:15
888 613 DE CABISSOLE LAURE PARIS 01:24:15
889 1914 POIRIER CHRISTOPHE SAINT MARCEAU 01:24:16
890 1859 PERON LAURENT ALENCON 01:24:16
891 1543 LETORT FRANCK PARNE SUR ROC 01:24:18
892 575 CROCHEMORE MARIE CLICHY 01:24:19
893 2046 RIVIERE STEPHANE LOUVERNE 01:24:19
894 1672 MATHIEU SOPHIE COULAINES 01:24:22
895 1070 GUERIN EMMANUEL VERSON 01:24:25
896 1275 LABBE CHRISTIAN MIEUXCE 01:24:27
897 1659 MARTEL DENIS CERISY BELLE ETOILE 01:24:27
898 287 BOULAY ANDRE SAINT PAVACE 01:24:28
899 1350 LE GUENNEC STEPHANE CAIRON 01:24:29
900 1199 HUE BRUNO TEILLE 01:24:29
901 561 COUDRAY YANNICK SAINT AUBIN DE LOCQUENAY 01:24:30
902 1209 HUND QUENTIN ALENCON 01:24:30
903 463 CHERON JEAN-PHILIPPE SAINT GERMAIN DE LA COUDRE 01:24:31
904 2337 WIETTHOFF FLAVIEN SAINTE SCOLASSE SUR SARTHE 01:24:31
905 285 BOULARD CEDRIC FIRFOL 01:24:33
906 1922 POLLAS LAETITIA LOUVERNE 01:24:33
907 739 DUCHEMIN FRANCOIS SAINT GERMAIN DU CORBEIS 01:24:34
908 1551 LEVEQUE JEREMY FLOTTEMANVILLE-HAGUE 01:24:35
909 1371 LE VILAIN CHRISTIAN RUAUDIN 01:24:35
910 238 BLONDEL XAVIER QUEVREVILLE LA POTERIE 01:24:35
911 521 COLLET BRUNO CONDE SUR SARTHE 01:24:35
912 528 COLLET MICKAEL ALENCON 01:24:36
913 1685 MAY JOEL PREAUX DU PERCHE 01:24:39
914 1287 LAIGNEAU XAVIER BOUCHEMAINE 01:24:40
915 1828 PASNON BRIGITTE LE MANS 01:24:41
916 2036 RIER GILLES SAINTE FOY DE MONTGOMMERY 01:24:44
917 1524 LEROYER NOËL BONNEMAISON 01:24:46
918 1610 MAILLARD LISE ARCONNAY 01:24:46
919 214 BIGOT FRANCK BURE 01:24:52
920 696 DIEULEVEUT VALERIE VENDOME 01:24:53
921 1201 HUE JEAN-PAUL HUISSEAU SUR COSSON 01:24:53
922 819 FERON MATHIEU DEMOUVILLE 01:24:54
923 1116 HAMARD ERIC LASSAY LES CHATEAUX 01:24:54
924 482 CHEVALLIER LAURENT LOUE 01:24:55
925 454 CHATILLON GERARD DAMIGNY 01:24:55
926 1761 MOULINS PASCAL TEILLE 01:24:56
927 1816 OZENE JULIEN LE GRAIS 01:24:57
928 555 COSSON ALAIN SAINT LONGIS 01:24:57
929 146 BAUDRY LUDOVIC LA FLECHE 01:24:58
930 200 BEUDIN JEAN-CYRILLE VAIGES 01:24:58
931 857 FOUILLEUL PATRICK GORRON 01:25:05
932 2152 SEBERT MARIE-CHRISTINE LA CHAPELLE PRES SEES 01:25:07
933 2219 TERHEC FLORIAN ECOUVES 01:25:11
934 1102 GUILLIN PATRICK MONTS 01:25:13
935 812 FAY ARNAUD HENANSAL 01:25:14
936 1830 PASSIEUX LAURENT VILLIERS SUR MARNE 01:25:18
937 266 BOTTE MATTHIEU SAINT SATURNIN 01:25:19
938 436 CHARDIN CYRIL SOURDEVAL 01:25:21
939 2304 VENOT CEDRIC CONDE SUR SARTHE 01:25:22
940 614 DE FREITAS CHRISTOPHE SAINT PIERRE DES NIDS 01:25:22
941 1192 HOUMEAU RAPHAEL ROUESSE VASSE 01:25:23
942 2203 TABUR DOMINIQUE ALENCON 01:25:25
943 738 DUCHEMIN CEDRIC BEAUVAIN 01:25:29
944 1559 LIEVIN FREDERIC SEES 01:25:29
945 53 AGARD SEBASTIEN BARBERY 01:25:29
946 904 GAPAIS ARNAUD RUAUDIN 01:25:30
947 169 BELLANGER BRUNO ALENCON 01:25:30
948 1948 POTTIER FANNY LA FERTE MACE 01:25:30
949 1132 HAREAU-VAULOUP SERGE COURCITE 01:25:31
950 1422 LEFEBVRE SANDRINE ARGENTAN 01:25:31
951 1788 NOIRE MICHEL LION SUR MER 01:25:31
952 2042 RIPAULT SANDRINE CHARCHIGNE 01:25:32
953 684 DESVOIS JOCELYN VIMOUTIERS 01:25:32
954 1692 MELUN DAVID LE MANS 01:25:33
955 1149 HELIE YOHANN BAILLEUL 01:25:33
956 2207 TAILLEBOSQ SYLVAIN VALFRAMBERT 01:25:34
957 828 FERYN TAILLEBOSQ NOEMIE ARCONNAY 01:25:35
958 827 FERYN FLORIAN ARCONNAY 01:25:35
959 1749 MORIN CYRIL CEAUCE 01:25:35
960 93 AVELINE CATHERINE SARGE LES LE MANS 01:25:37
961 1778 NICOLAS LOÏC CAMBES EN PLAINE 01:25:37
962 1628 MANSON BERTRAND VALFRAMBERT 01:25:37
963 506 CLOUET GUILLAUME CAEN 01:25:38
964 761 DUPONT SEBASTIEN ARCONNAY 01:25:40
965 720 DROUET PHILIPPE FALAISE 01:25:42
966 1612 MAILLARD PHILIPPE ARCONNAY 01:25:43
967 1808 ORY JEAN-MARC MAYENNE 01:25:43
968 832 FILOCHE DOMINIQUE IZE 01:25:43
969 2187 SOLLIER MICHEL L’AIGLE 01:25:43
970 2178 SIMON MICHEL LES RAIRIES 01:25:44
971 1601 LUCAS JEREMY FONTENAY LE MARMION 01:25:46
972 370 CADIGNAN SOPHIE ECOMMOY 01:25:49
973 1939 POTHIN YOUENN ALENCON 01:25:50
974 161 BEDODI ALEXIS SAINT SULPICE SUR RISLE 01:25:52
975 311 BOUSSARD JEAN-MARIE SAINT ARNOULT 01:25:56
976 172 BELLOIR LUDOVIC CHAMPSECRET 01:25:56
977 152 BEAUDOUX DANIEL BREZOLLES 01:25:58
978 1882 PHILIPPE ANNIE LISIEUX 01:25:58
979 455 CHAUMONT BRUNO HEROUVILLE SAINT CLAIR 01:25:58
980 1154 HENRY JEAN-FRANCOIS SEVIGNY 01:26:00
981 1930 PORCHERON GHISLAIN LE MANS 01:26:00
982 1920 POISSON PASCAL HESLOUP 01:26:00
983 1919 POISSON JACQUES NOISY LE GRAND 01:26:00
984 731 DUBOIS SONIA TREVIERES 01:26:05
985 1970 PREVOST MATHIEU LA FERRIERE BECHET 01:26:05
986 509 COCHIN DYLAN LA SEGUINIERE 01:26:07
987 362 BUNEL MANUEL POTIGNY 01:26:10
988 2026 RETAILLE ANNE-SOPHIE LA FERRIERE AU DOYEN 01:26:12
989 428 CHAPALAIN CLEMENT ROSCOFF 01:26:13
990 2002 RAISON GAËL VIMARCE 01:26:13
991 271 BOUCHET MATHIEU MORTAGNE AU PERCHE 01:26:16
992 1883 PHILIPPE BENJAMIN LONGNY LES VILLAGES 01:26:18
993 1169 HESNAULT DOMINIQUE ASSE LE BOISNE 01:26:18
994 409 CHABLE ERIC LONRAI 01:26:19
995 781 DUVAL PATRICK ECOUVES 01:26:23
996 1678 MAUGER ROMUALD GESNES LE GANDELIN 01:26:23
997 1177 HIRON PHILIPPE SEES 01:26:24
998 1824 PAPIN JEAN-LUC LONRAI 01:26:26
999 1928 PORCHER ERIC SAINT SULPICE SUR RISLE 01:26:26
1000 1500 LEPROUST PATRICIA ALLONNES 01:26:28
1001 365 BUTET BERTRAND LISIEUX 01:26:28
1002 461 CHENU NICOLAS ALENCON 01:26:30
1003 682 DESPREZ PATRICK GIVENCHY EN GOHELLE 01:26:31
1004 155 BEAUPLET GILLES LE MANS 01:26:34
1005 2275 VALENTIN PHILIPPE MOULINS LE CARBONNEL 01:26:34
1006 1327 LASTELLE JOEL CORMELLES LE ROYAL 01:26:38
1007 147 BAYARD OLIVIER ALENCON 01:26:39
1008 937 GAUDRE HUBERT DAMIGNY 01:26:40
1009 938 GAUDRE NATHALIE SAINT DENIS SUR SARTHON 01:26:40
1010 416 CHALUMEAU THIERRY FONTAINE ETOUPEFOUR 01:26:41
1011 1528 LESEIGNEUR CLARA SAINT SULPICE SUR RISLE 01:26:41
1012 1514 LEROUX ERIC ROCQUANCOURT 01:26:43
1013 1490 LEPILEUR FREDERIC FRENES 01:26:43
1014 1211 HUREL ALAIN MONDEVILLE 01:26:44
1015 1885 PHILIPPOT GERARD SAINT ANDRE SUR ORNE 01:26:44
1016 526 COLLET JOSEPHINE CONDE SUR SARTHE 01:26:45
1017 833 FINON KARINE L’AIGLE 01:26:45
1018 524 COLLET ERIC TUFFE VAL DE LA CHERONNE 01:26:46
1019 1821 PAINEAU REMI LE MANS 01:26:46
1020 300 BOURGAULT ERIC BAGNOLES DE L’ORNE 01:26:48
1021 171 BELLOC HERVE SAINT NICOLAS DE SOMMAIRE 01:26:49
1022 1712 METAYER VINCENT CLINCHAMPS SUR ORNE 01:26:49
1023 1281 LAFOSSE WILLIAM LOUVIGNE DU BAIS 01:26:51
1024 1630 MANVIEU BENOIT ARCONNAY 01:26:51
1025 1794 NOUVEAU ISABELLE MOULAY 01:26:51
1026 1062 GRINEISER SOPHIE BREZOLLES 01:26:51
1027 865 FOUQUET STEPHANE ALENCON 01:26:53
1028 1043 GOUVAZE FLORIAN VALFRAMBERT 01:26:53
1029 1604 MADELON LAURENT LE MANS 01:26:54
1030 978 GILBERTAS MATHIEU CAEN 01:26:55
1031 1910 PLUVIAUD DAMIEN BAZOCHES AU HOULME 01:26:56
1032 440 CHARLES-TAYEB MARION LA FRESNAYE SUR CHEDOUET 01:26:56
1033 1097 GUILLEMET PIERRE LERY 01:26:58
1034 1572 LISE MICKAËL GESNES LE GANDELIN 01:26:59
1035 1131 HAREAU ALEXIS MAYENNE 01:26:59
1036 1562 LIGERON JACQUES VERSAINVILLE 01:27:00
1037 1563 LIGERON THOMAS FALAISE 01:27:00
1038 450 CHATEL CHRISTOPHE SAINT DIDIER SOUS ECOUVES 01:27:03
1039 347 BRODIN LAURENCE CEAUCE 01:27:04
1040 299 BOURGAULT DOMINIQUE LOUPFOUGERES 01:27:04
1041 474 CHEVALIER EDWINA THUBOEUF 01:27:05
1042 2295 VAUCHEL JACKY MAROLLETTE 01:27:06
1043 2197 SURCQ FREDERIC ANCINNES 01:27:06
1044 1991 RACINEUX JEAN-PAUL SAINT PHILBERT DE GRAND LIEU 01:27:07
1045 1397 LECARDRONNEL WULFRAN JUVIGNY SUR ORNE 01:27:07
1046 2064 ROCFORT PHILIPPE FONTAINE CHAALIS 01:27:08
1047 1335 LAUREY JOHNNY LE MANS 01:27:08
1048 615 DE GOUVION SAINT CYR MARC GESNES LE GANDELIN 01:27:09
1049 529 COLLET OLIVIER SAINT BREVIN LES PINS 01:27:09
1050 1717 MICHEL CHRISTOPHE BAYEUX 01:27:10
1051 346 BRODIN JEAN-CLAUDE CEAUCE 01:27:13
1052 2280 VALLET BRUNO LE MANS 01:27:14
1053 318 BOUTTELOUP WILFRID LA SUZE SUR SARTHE 01:27:14
1054 1280 LADUREE ANTHONY LA FRESNAYE SUR CHEDOUET 01:27:16
1055 309 BOURREE KEVIN ANCINNES 01:27:18
1056 2312 VERRIER JEAN-LOUIS LE MANS 01:27:20
1057 253 BOMPAIN STEVEN CAEN 01:27:21
1058 1378 LEBIGOT SEBASTIEN HUSSON 01:27:22
1059 2311 VERON CLAUDE BRIOUZE 01:27:23
1060 1183 HONORE TIPHAINE PARIS 01:27:26
1061 1820 PAILLE PATRICK ALENCON 01:27:26
1062 2044 RIVAULT JEAN-PAUL LAIGNE EN BELIN 01:27:27
1063 887 GABIN BERANGE BREZOLLES 01:27:27
1064 2014 REBOURS JEAN-YVES SAINT LOUP 01:27:29
1065 1128 HARDOIN JEAN-CHRISTOPHE FIRFOL 01:27:29
1066 2271 TURQUAIS PASCAL NEUVILLE SUR SARTHE 01:27:29
1067 1916 POIRIER OLIVIER LE MANS 01:27:31
1068 1255 JOUSSELIN CHRISTOPHE MALAKOFF 01:27:31
1069 920 GARREC DENIS CAEN 01:27:31
1070 1376 LEBIGOT ARNAUD LE TEILLEUL 01:27:32
1071 2140 SAUSSAIS STEPHANE ARGENTAN 01:27:34
1072 1564 LIGET DOMINIQUE NEUVILLE SUR SARTHE 01:27:34
1073 1666 MARTIN THIERRY SAINT GEORGES 01:27:35
1074 2329 VIVIEN AURELIE L’AIGLE 01:27:36
1075 661 DENIS TIPHAINE SAINT CLOUD 01:27:36
1076 693 DIEKMANN PETER ALLEMAGNE 01:27:37
1077 601 DARY ABEL ALENCON 01:27:38
1078 125 BARLIER ESTELLE LES VERRIERES EN ANJOU 01:27:40
1079 1117 HAMEL CHRISTOPHE PONT L’EVEQUE 01:27:42
1080 2024 RENOU PHILIPPE BELLENGREVILLE 01:27:42
1081 1459 LEMAITRE ERIC BURE 01:27:46
1082 1267 KELLER FREDERIC LALEU 01:27:47
1083 903 GAPAILLARD-LEMOINE KATIA SAINT GERMAIN DU CORBEIS 01:27:47
1084 2136 SASSIER JOEL ECOUVES 01:27:48
1085 1140 HEBERT FREDERIC POTIGNY 01:27:48
1086 1545 LETOURNEAU VANESSA CHERISAY 01:27:48
1087 1048 GRAFFIN MATHIAS CHERISAY 01:27:49
1088 444 CHARTIER ELISABETH GUECELARD 01:27:49
1089 755 DUJARRIER REMI LA FERTE MACE 01:27:50
1090 1195 HUBERT DENIS NEGREVILLE 01:27:51
1091 1194 HUARD LOÏC ISIGNY LE BUAT 01:27:53
1092 1496 LEPLEY SANDRINE ISIGNY LE BUAT 01:27:53
1093 2225 THEBAUDIN FREDERIC SAINT GEORGES DU BOIS 01:27:54
1094 604 DAUSSY ERIC DEAUVILLE 01:27:55
1095 2047 ROBERT JEAN-MARC VILLERS EN OUCHE 01:27:56
1096 479 CHEVALLIER DANIEL SAINT PIERRE DES CORPS 01:27:57
1097 109 BARALLA FRANCOIS PARIS 01:27:57
1098 760 DUPONT JACQUELINE ALENCON 01:27:58
1099 2073 ROINET DANIEL LA FLECHE 01:28:00
1100 412 CHABLE NICOLAS CAUVIGNY 01:28:01
1101 1582 LORET JEAN-CHARLES LE MENIL DE BRIOUZE 01:28:02
1102 1801 OLIVIER SEBASTIEN SAI 01:28:02
1103 1270 KEROUAULT BRUNO MUZILLAC 01:28:02
1104 565 COUROIS RAPHAEL VERSON 01:28:02
1105 1010 GODMER GILLES SAINT JEAN D’ASSE 01:28:03
1106 617 DE SAINT MARTIN GILLES HENNEBONT 01:28:04
1107 1374 LEBERT THIERRY LE MANS 01:28:04
1108 2045 RIVIERE AURELIE ALENCON 01:28:04
1109 1000 GOBLET GERARD CERISE 01:28:05
1110 121 BARDIN SYLVAIN LA SUZE SUR SARTHE 01:28:05
1111 1349 LE GRAND GUY LE MANS 01:28:07
1112 1891 PICHONNIER GERARD SAINT GERMAIN DU CORBEIS 01:28:11
1113 1626 MANGIANTE GINO CAEN 01:28:13
1114 174 BENAZET JEAN-FRANCOIS ECOUCHE 01:28:15
1115 2235 THOMAS LAETITIA GESNES LE GANDELIN 01:28:15
1116 263 BOSCHER SANDRINE SAINT DENIS SUR SARTHON 01:28:17
1117 872 FOURNIER LAURENT JAVRON LES CHAPELLES 01:28:18
1118 2326 VILLERIO ALAIN CONDE SUR SARTHE 01:28:19
1119 1252 JOURDAN MICKAEL LE MANS 01:28:20
1120 2155 SEHIER PATRICK FOURCHES 01:28:20
1121 671 DESCOURBES PATRICK CONDE SUR SARTHE 01:28:24
1122 874 FRAPARD VINCENT LE MANS 01:28:24
1123 728 DUBOIS FRANK LE MANS 01:28:25
1124 1309 LANDEMAINE ROBIN ARON 01:28:26
1125 593 DABOUX SIEGFRIED SEES 01:28:27
1126 449 CHASTAS CLAUDE VAL DE REUIL 01:28:28
1127 625 DEGUERNEL FLAVIEN LA FERRIERE BOCHARD 01:28:28
1128 1570 LIOT EVELYNE DOMFRONT 01:28:29
1129 1740 MONTIER PATRICK BOSC RENOULT EN OUCHE 01:28:29
1130 830 FICHET BRUNO LA MILESSE 01:28:29
1131 797 EPIPHANA NICOLAS LA BAZOCHE GOUET 01:28:29
1132 974 GIAQUINTO SIMONE VALFRAMBERT 01:28:31
1133 2217 TELLIER JEAN-LUC LE MANS 01:28:35
1134 187 BERRIER AURELIE LE THEIL SUR HUISNE 01:28:36
1135 863 FOUQUES JOCELYNE THIEVILLE 01:28:37
1136 81 ARTOIS ARNAUD QUESNOY SUR DEULE 01:28:37
1137 1785 NOGARO THOMAS BAZOCHES SUR HOENE 01:28:38
1138 820 FERRAGUTI STEPHANE CONDE SUR SARTHE 01:28:39
1139 631 DELAHAYE PHILIPPE LA LACELLE 01:28:41
1140 157 BEAUVAIS LAURENT ARGENTAN 01:28:41
1141 1354 LE PICARD MARC-ANTOINE LONRAI 01:28:41
1142 2292 VASSEUR RAPHAËL SAINT GERMAIN DU CORBEIS 01:28:41
1143 2248 TORTOLANO MARC-ANTOINE LE MANS 01:28:42
1144 1283 LAGARRIGUE VALENTIN SAINT GERMAIN DU CORBEIS 01:28:43
1145 83 ASSIER DENIS ANCINNES 01:28:43
1146 646 DELAVIGNE CORINNE L’AIGLE 01:28:44
1147 199 BEUCHER DANIEL VILLEBADIN 01:28:45
1148 275 BOUCHOU MARINE PARIS 01:28:46
1149 1167 HERVE MICKAEL NOYEN SUR SARTHE 01:28:47
1150 394 CASTIGNOLES NOËL SAINT ETIENNE DE MONTLUC 01:28:51
1151 358 BRUNET ROMAIN CLICHY 01:28:52
1152 924 GASNIER ROMAIN LE PIN LA GARENNE 01:28:53
1153 432 CHAPIN JEAN-EMMANUEL CLERMONT FERRAND 01:28:54
1154 499 CLATOT FABIAN ALENCON 01:28:54
1155 90 AURY SEBASTIEN COURTOMER 01:28:55
1156 1239 JOSSEAUME ISABELLE FALAISE 01:28:55
1157 1006 GODIER JEAN-PHILIPPE FALAISE 01:28:55
1158 1836 PAUTREL CHANTAL PLEINE FOUGERES 01:28:56
1159 2335 WARDAVOIR DAVID CONDE SUR SARTHE 01:28:57
1160 1087 GUIBERT JEAN-MARIE LE MANS 01:28:57
1161 1357 LE POITEVIN TITOUAN BELGIQUE 01:28:58
1162 626 DEGUERNEL SYLVERE FLERS 01:28:58
1163 914 GARNIER CYRIL RIVES D’ANDAINE 01:28:59
1164 954 GAUTUN NICOLAS ALENCON 01:29:00
1165 122 BAREAU YANN LE MANS 01:29:02
1166 1847 PELLERAY ALAIN DAMIGNY 01:29:02
1167 989 GIRARD STEPHANIE OUISTREHAM 01:29:04
1168 2112 ROY HERVE ALENCON 01:29:06
1169 1355 LE POITEVIN PHIL BELGIQUE 01:29:10
1170 823 FERRE JEANNETTE AUTHEUIL 01:29:10
1171 1363 LE ROUX THIBAUT PARIS 01:29:11
1172 276 BOUDET DOMINIQUE SOUVIGNE SUR MEME 01:29:12
1173 1567 LINA MARC MONTBIZOT 01:29:13
1174 360 BUFFETAUT MIKAEL ALENCON 01:29:14
1175 1346 LE FISCHER SYLVIA SAINTE MARGUERITE DES LOGES 01:29:15
1176 1701 MERHAN JEAN-FRANCOIS TRUN 01:29:15
1177 921 GASNIER CLARISSE SAVIGNE L’EVEQUE 01:29:19
1178 413 CHAIGNARD HUBERT AUBUSSON 01:29:20
1179 958 GENISSEL THIERRY SAINT BOMER LES FORGES 01:29:21
1180 1485 LEPAS CHRISTOPHE LE MESNIL ROUXELIN 01:29:23
1181 566 COURT FRANCOIS PARIS 01:29:24
1182 427 CHANTEPIE SANDRINE BERUS 01:29:24
1183 1013 GOHIER STEPHANE L’HUISSERIE 01:29:25
1184 2115 ROYER VINCENT ALENCON 01:29:26
1185 1413 LECROCQ ANTHONY FLERS 01:29:26
1186 74 ANTOINE OLIVIER RADON 01:29:26
1187 666 DESAEGHER SEVERINE MONTESSON 01:29:27
1188 1756 MOTTIER LAURENT CONDE SUR SARTHE 01:29:27
1189 1042 GOUTARD JOHNNY PARIGNE L’EVEQUE 01:29:27
1190 194 BESNARD BERNADAC ARNAULD ALENCON 01:29:28
1191 1699 MERCIER STEPHAN SAINT REMY DU VAL 01:29:29
1192 716 DROMAIN BRUNO LE MANS 01:29:30
1193 541 CORDIER VINCENT AIGNE 01:29:30
1194 1804 OLLIVIER JEAN-YVES SAINT NAZAIRE 01:29:32
1195 2196 SUHARD THIERRY PRE EN PAIL 01:29:32
1196 519 COLINART THIBAUT LORIENT 01:29:35
1197 936 GAUDRE HERVE SAINT DENIS SUR SARTHON 01:29:39
1198 2303 VENAULT HELENE ALENCON 01:29:39
1199 1799 OLIVIER HELENE SAINT GERMAIN DU CORBEIS 01:29:40
1200 486 CHEVROLLIER VALERIANE LE MANS 01:29:41
1201 655 DENECHEAU JEAN-CHARLES MULSANNE 01:29:41
1202 273 BOUCHOU CAMILLE PARIS 01:29:42
1203 1449 LELANDAIS PHILIPPE ALENCON 01:29:44
1204 1818 OZOUX LIONEL RUAUDIN 01:29:44
1205 942 GAUMER FABRICE BAVENT 01:29:45
1206 402 CENDRIER LUDOVIC GACE 01:29:46
1207 160 BECHU CORENTIN PARIS 01:29:46
1208 1416 LEDAUPHIN THIERRY BETHON 01:29:48
1209 2229 THIERRY DENIS VILLAINES LA JUHEL 01:29:51
1210 1624 MANCHERON THIERRY ROZ SUR COUESNON 01:29:51
1211 1623 MANCHERON MARIE-JO ROZ SUR COUESNON 01:29:52
1212 2025 RENOUX JULIEN ASSE LE BOISNE 01:29:53
1213 1522 LEROY ANTOINE CEAUCE 01:29:54
1214 1925 PONCEL GILLES BESSE SUR BRAYE 01:29:57
1215 1398 LECAUX ANNE-MARIE LE MANS 01:30:03
1216 852 FOUCHER ARNAUD SAINT BREVIN LES PINS 01:30:04
1217 179 BERCERON DIMITRI LA CHAPELLE SAINT FRAY 01:30:04
1218 997 GOBE DANIEL SAINT PIERRE DES NIDS 01:30:05
1219 2290 VASSEUR DAVID SEMALLE 01:30:07
1220 1598 LOUVET GERALDINE ETERVILLE 01:30:07
1221 1819 PACAUD CELINE SAINT BREVIN LES PINS 01:30:07
1222 1278 LACAMPAGNE PIERRE ISSY LES MOULINEAUX 01:30:08
1223 782 DUVAL YVES ARGENTAN 01:30:09
1224 1447 LEJEUNE PATRICK LE MANS 01:30:09
1225 2204 TABURET ANTHONY TILLY SUR SEULLES 01:30:09
1226 1145 HEDLER MARC ALLEMAGNE 01:30:10
1227 940 GAULTIER JEROME SAINT MARS LA BRIERE 01:30:11
1228 719 DROUET PATRICK SAINT MARS LA BRIERE 01:30:11
1229 1431 LEFRANCOIS FLORIAN VIRE 01:30:12
1230 1184 HOREAU CHRISTIAN MAYENNE 01:30:13
1231 2278 VALLEE CEDRIC LES RIVES D’ANDAINE 01:30:14
1232 507 COADIC MICKAEL COURTOMER 01:30:14
1233 2301 VAUTIER PASCAL CAEN 01:30:14
1234 994 GIRAUDEAU JACKY SUISSE 01:30:16
1235 1404 LECHEVALIER MICHAËL VIRE-NORMANDIE 01:30:16
1236 2202 TABI JAMEL FALAISE 01:30:17
1237 296 BOUQUEREL STEPHANIE FALAISE 01:30:17
1238 522 COLLET CYRILLE PREVAL 01:30:19
1239 2141 SAUTEREAU MAGALI LIVAROT PAYS D’AUGE 01:30:19
1240 746 DUFAY HERVE LONGNY AU PERCHE 01:30:20
1241 1728 MONCHAUX FRANCOIS CAEN 01:30:20
1242 1733 MONNIER FLORIAN SOUGE LE GANELON 01:30:24
1243 1783 NIEZ LAURENT SAINT OUEN SUR ITON 01:30:27
1244 127 BARRA AGNES ETIVAL LES LE MANS 01:30:29
1245 2246 TONNAIRE HELENE TOULON 01:30:29
1246 2102 ROUSSEAU MARTIAL AMFREVILLE 01:30:30
1247 2061 ROBINET THEOPHILE AUTHIEUX RATIEVILLE 01:30:32
1248 1160 HERISSON JEAN-MARC SAINT MAIXENT 01:30:32
1249 1779 NICOLAS XAVIER SAINT VINCENT DES MEZEMETS 01:30:33
1250 1579 LOMENECH ALAIN LE MANS 01:30:33
1251 1323 LARONCHE FRANCOIS TIREPIED 01:30:34
1252 2242 TIRATAY ERIC LE MANS 01:30:36
1253 2070 ROETTA MATHIEU ALENCON 01:30:36
1254 1228 JEANNENEZ DAMIEN VERSON 01:30:37
1255 1111 GUITTARD NICOLAS LIVAIE 01:30:37
1256 341 BRIERE BENOIT BRETTEVILLE SUR ODON 01:30:38
1257 2015 REDON DOMINIQUE PARIGNE LE POLIN 01:30:38
1258 2048 ROBERT PATRICK BRETTEVILLE L’ORGUEUILLEUSE 01:30:39
1259 422 CHANCLOU AURELIE LA CHAPELLE DU BOIS 01:30:39
1260 2114 ROYER CYRILLE CAEN 01:30:40
1261 1044 GOUVAZE JULIEN ANVEVILLE 01:30:41
1262 1229 JEANNERET FREDERIC LA CHAPELLE PRES SEES 01:30:42
1263 1933 PORTE VALERIE SAINT SULPICE SUR RISLE 01:30:44
1264 1023 GOSSELIN VALERIE ARGENTAN 01:30:45
1265 242 BODIN FREDERIC ARGENTAN 01:30:45
1266 1613 MAILLOL SYLVERE SAINT PATERNE 01:30:45
1267 559 COSTILS GILLES TOURVILLE SUR PONT AUDEMER 01:30:45
1268 1870 PESCHET CHRISTELLE ETERVILLE 01:30:46
1269 2071 ROGUE CHRISTOPHE SAVIGNE L’EVEQUE 01:30:46
1270 1523 LEROY MARC MAGNY LE DESERT 01:30:47
1271 1381 LEBLANC ETIENNE SAINT PATERNE 01:30:48
1272 119 BARDET FRANCK SAINT GERMAIN DU PERT 01:30:49
1273 1094 GUIHENEUF LUDOVIC SARCEAUX 01:30:49
1274 2052 ROBILLARD PATRICE CAEN 01:30:50
1275 1960 POUPRY-SIMON ELODIE MONTMERREI 01:30:50
1276 546 CORMIER THIERRY LIGNIERES LA CARELLE 01:30:51
1277 1336 LAVARDE JOHN ECOUCHE 01:30:52
1278 1552 LEVEQUE PATRICIA ALENCON 01:30:52
1279 1386 LEBORGNE ANTHONY L’AIGLE 01:30:53
1280 900 GANDRA ANTONIO MASSY 01:30:54
1281 1616 MAIRE CHRISTOPHE ALENCON 01:30:55
1282 2338 WINTENBERGER CYRIL ALENCON 01:30:55
1283 1499 LEPROUST LUDOVIC MONTBIZOT 01:30:56
1284 2332 VOLTIER FRANCIS PRE EN PAIL 01:30:58
1285 1541 LETILLEUX PATRICK PRE EN PAIL 01:30:58
1286 2232 THIREAU ERIC PRE EN PAIL 01:30:58
1287 1031 GOUIN DENIS SAINT HILAIRE SUR RISLE 01:31:00
1288 87 AULNETTE JEAN-YVES DOMLOUP 01:31:00
1289 2096 ROUAUD SOPHIE SAINT JAMME SUR SARTHE 01:31:01
1290 2163 SERAI HUBERT LE MESNIL SAINT DENIS 01:31:02
1291 1802 OLLER JEREMIE VILLENEUVE EN PERSEIGNE 01:31:03
1292 1723 MOISSERON NICOLAS LARRE 01:31:04
1293 2159 SELMIRE VINCENT SAINT PATERNE 01:31:05
1294 892 GALAIS CHRISTOPHE SOULIGNE SOUS BALLON 01:31:05
1295 898 GANDON FLORIANE JOUE DU BOIS 01:31:05
1296 1001 GODAIS MANUELA CHANDAI 01:31:05
1297 1364 LE ROUX YANNICK SANNERVILLE 01:31:06
1298 196 BETOUX ELODIE CAEN 01:31:08
1299 391 CASALS CARLOS MAMERS 01:31:08
1300 1593 LOUVEAU MAXIME ALENCON 01:31:09
1301 1745 MOREL JEAN-FRANCOIS LONRAI 01:31:11
1302 1688 MEDAH VIOLETTE-ANAIS LE MANS 01:31:14
1303 1516 LEROUX GILLES DAMIGNY 01:31:16
1304 741 DUCHENE DOMINIQUE SOUVIGNE SUR SARTHE 01:31:16
1305 537 CORBIN CLEMENT LE POULIGUEN 01:31:16
1306 2056 ROBIN JEAN-NICOLAS SAINT MALO DE GUERSAC 01:31:17
1307 1168 HERY MICKAEL GUERANDE 01:31:18
1308 538 CORBIN PIERRE GUERANDE 01:31:18
1309 1999 RAGOT JOYCE BRULLEMAIL 01:31:18
1310 1277 LABBE LAURENT ESSAY 01:31:18
1311 286 BOULARD NICOLAS BREHEMONT 01:31:24
1312 459 CHAVENTRE SARAH RIVES D’ANDAINE 01:31:25
1313 1301 LAMORLETTE JEAN-LUC LA BAZOGE MONTPINCON 01:31:25
1314 1642 MARIE PASCAL ARGENCES 01:31:26
1315 1741 MOREAU FLORENCE BRETIGNOLLES LE MOULIN 01:31:27
1316 1690 MEILLON YANNICK LIGNIERES ORGERES 01:31:29
1317 1180 HOCQUARD OLIVIER TRUN 01:31:29
1318 1959 POUPRY DAMIEN MONTMERREI 01:31:30
1319 1674 MAUCHRETIEN PHILIPPE LE HAVRE 01:31:31
1320 787 EGOUY YOHANN ARGENTAN 01:31:31
1321 927 GASTINEAU CHRISTIAN ALENCON 01:31:32
1322 808 FAUDEMER ERIC SAINT GERMAIN DU CORBEIS 01:31:34
1323 1548 LEVACHER BERNARD LA CHAPELLE SAINT AUBIN 01:31:35
1324 965 GERTHOFFER ANNE-CLAIRE LA CHAPELLE SAINT AUBIN 01:31:35
1325 1039 GOURDON JEAN-PAUL LA MILESSE 01:31:36
1326 916 GARNIER KEVIN ANNOVILLE 01:31:36
1327 1986 QUERE JEAN-JACQUES ALENCON 01:31:40
1328 996 GLOUX CATHERINE ALENCON 01:31:41
1329 477 CHEVALIER PHILIPPE LA SAUVAGERE 01:31:42
1330 1848 PELLERIN PAUL LONLAY L’ABBAYE 01:31:42
1331 889 GAHERY ARNAUD ALENCON 01:31:44
1332 2328 VISAGE EDOUARD L’AIGLE 01:31:46
1333 120 BARDET RENE LA CHAPELLE SAINT AUBIN 01:31:47
1334 1707 MESNAGE FLORENT LA CHAPELLE BICHE 01:31:47
1335 201 BEURIOT ANDREA ANGERS 01:31:48
1336 202 BEURIOT THIERRY BEAUMONT SUR SARTHE 01:31:49
1337 951 GAUTREAU ALEXANDRE PARIS 01:31:49
1338 1058 GRESSANT FRANCOIS SAINT GERMAIN DU CORBEIS 01:31:50
1339 1026 GOUGEON DORIAN L’AIGLE 01:31:51
1340 804 FALCOU VICTORIEN SAINT CELERIN 01:31:53
1341 1144 HECHAM RACHID ANCINNES 01:31:53
1342 2180 SIMONE RUDY RAMBOUILLET 01:31:54
1343 364 BUTET BAPTISTE LISIEUX 01:31:56
1344 2098 ROULAND JEAN-FRANCOIS USSY 01:31:57
1345 1536 LETERRIER EUGENE CONDE SUR SARTHE 01:31:58
1346 1285 LAHAYE FREDERIC HEROUVILLE SAINT CLAIR 01:31:59
1347 1985 QUENTIN SERGE CHANGE 01:31:59
1348 525 COLLET GWENAEL BAGNOLES DE L’ORNE 01:32:02
1349 2305 VERAQUIN ROGER LAMBLORE 01:32:03
1350 1096 GUILLEMET FRANCOIS PARIS 01:32:04
1351 1661 MARTEL SEVERINE LA BAZOGE MONTPINCON 01:32:06
1352 993 GIRAUDEAU DIDIER SAINT ANDRE DE L’EURE 01:32:07
1353 2169 SERVAIN MICHEL HIREL 01:32:08
1354 980 GILLET YVES BOUCEY 01:32:08
1355 979 GILLET MARIE-JOSEPHE BOUCEY 01:32:08
1356 1345 LE DEAN CEDRIC ARGENTAN 01:32:08
1357 1963 POURREAU PERRINE TROUVILLE SUR MER 01:32:10
1358 1782 NIEPCERON CLAUDE SAVIGNE L’EVEQUE 01:32:12
1359 1313 LANDY FLORIAN BIEVILLE BEUVILLE 01:32:13
1360 846 FOREAU JOEL LA FERTE BERNARD 01:32:14
1361 2132 SANSEAU GILBERT CHAMPFLEUR 01:32:15
1362 1065 GUEDE CHRISTINE ECOUCHE 01:32:15
1363 1831 PATIN CATHERINE SAINT GERMAIN DU CORBEIS 01:32:18
1364 1468 LEMERCIER EMMANUEL SAINT SATURNIN 01:32:19
1365 616 DE SAINT JORES GREGORY ARGENTAN 01:32:20
1366 743 DUCLOS LIONEL DAMIGNY 01:32:21
1367 1474 LEMOINE MARIE-THERESE EVRON 01:32:21
1368 1700 MERCIER VINCENT CHERREAU 01:32:22
1369 443 CHARTIER CHRISTOPHE BALLON 01:32:22
1370 1533 LESUEUR JONATHAN ALENCON 01:32:24
1371 115 BARBIER CATHERINE LOMBRON 01:32:25
1372 400 CAZE MICKAEL BEAUCHAMPS 01:32:25
1373 1902 PILORGE DANIEL LAVAL 01:32:25
1374 117 BARBIER PHILIPPE LOMBRON 01:32:25
1375 2283 VANDROMME LOÏC LYON 01:32:29
1376 1095 GUILLAS ISABELLE THIAIS 01:32:29
1377 333 BREBION JEAN-LUC LA FERTE BERNARD 01:32:30
1378 1011 GOGUELET THIERRY CHANGE 01:32:31
1379 292 BOULLIER DOMINIQUE ATHIS VAL DE ROUVRE 01:32:32
1380 473 CHEVALIER ANTHONY NEAUPHE SOUS ESSAY 01:32:33
1381 1845 PELARDY ERIC PARIS 01:32:33
1382 278 BOUDONNET AUDE-MARIE CARPIQUET 01:32:34
1383 907 GARCIA SUAREZ FREDERIC DAMVILLE 01:32:36
1384 1846 PELCOT DENIS SAINT MARTIN DE FONTENAY 01:32:37
1385 1681 MAUPAY JEAN-FRANCOIS SAINT GERMAIN SUR SARTHE 01:32:37
1386 1755 MORLIN ALAIN NOGENT LE ROTROU 01:32:37
1387 747 DUFETEL MELINDA SAINT GERMAIN SUR SARTHE 01:32:38
1388 932 GAUDIN MICHEL AVRANCHES 01:32:38
1389 1302 LAMOTTE MARILYNE LIVAROT PAYS D’AUGE 01:32:39
1390 880 FRIQUET JEAN-PIERRE FALAISE 01:32:39
1391 129 BARREAU CLAIRE MOULAY 01:32:39
1392 1395 LECAMUS GUILLAUME MONTREUIL 01:32:41
1393 366 BUTET SANDRINE LISIEUX 01:32:42
1394 1249 JOUNY LOÏC LARRE 01:32:44
1395 1997 RAGO MICHEL LIGNIERES LA CARELLE 01:32:46
1396 1106 GUILMEAU MICKAEL CHERREAU 01:32:47
1397 2214 TAVARES LOÏC LE MANS 01:32:48
1398 1465 LEMARECHAL BENOIT SAINT PIERRE D’ENTREMONT 01:32:48
1399 1466 LEMARECHAL CAROLINE SAINT PIERRE D’ENTREMONT 01:32:48
1400 158 BECHET CHRISTIAN VERNEUIL SUR AVRE 01:32:49
1401 1611 MAILLARD MICHEL VALFRAMBERT 01:32:49
1402 1232 JEZEQUEL YANNIG EPRON 01:32:51
1403 295 BOUQUEREL AURORE EPRON 01:32:51
1404 390 CARTIER JEAN-PAUL SAINT CALEZ EN SAOSNOIS 01:32:51
1405 1539 LETESSIER THIERRY FALAISE 01:32:57
1406 1053 GRANIER MATHIEU ALENCON 01:32:57
1407 784 DUWALD BLANDINE ALENCON 01:32:58
1408 385 CARLE DAVID MONT SAINT AIGNAN 01:33:00
1409 1310 LANDIER CHARLENE LA FERTE BERNARD 01:33:00
1410 288 BOULAY TONY BAUQUAY 01:33:01
1411 1996 RAGAINE CATHY MULSANNE 01:33:01
1412 2062 ROBLOT BRUNO LA QUINTE 01:33:02
1413 1319 LANGLOIS-LENEVEU SANDRINE TELLIERES LE PLESSIS 01:33:03
1414 269 BOUCE MICHEL SAINT BRICE DE LANDELLES 01:33:07
1415 1260 JUGON EMMANUEL GAUVILLE 01:33:11
1416 633 DELAMOTTE QUENTIN PARIS 01:33:17
1417 1775 NGUYEN GIAO RENNES 01:33:19
1418 241 BLOTTIERE SEBASTIEN SAVIGNE L’EVEQUE 01:33:21
1419 1359 LE PROVOST-HAREL KEVIN LE HOM 01:33:25
1420 91 AUSSANT AGNES FALAISE 01:33:26
1421 637 DELANDRE ULRICH SAINT GERMAIN DU CORBEIS 01:33:27
1422 1012 GOHIER JEROME BOURGUEBUS 01:33:27
1423 1594 LOUVEAU PHILIPPE LA CHAPELLE D’ANDAINE 01:33:29
1424 2072 ROINEL ERIC LE TEILLEUL 01:33:31
1425 1637 MARGUERITE BENOIT CAEN 01:33:31
1426 1056 GRECO VALERIE GAVRUS 01:33:31
1427 1769 NAUD AURELIEN COULAINES 01:33:33
1428 1092 GUICHARD ALAIN SOLIERS 01:33:33
1429 876 FRIGOLET ROMAIN LE MANS 01:33:35
1430 414 CHALUMEAU CHRISTELLE FONTAINE ETOUPEFOUR 01:33:35
1431 1976 PRINTEMPS OLIVIER LA ROCHE SUR YON 01:33:36
1432 1164 HERRIAUX QUENTIN SAINT HERBLAIN 01:33:38
1433 1721 MILLIANCOURT LAURE LE MANS 01:33:41
1434 457 CHAUVIN MICHEL EVRON 01:33:42
1435 1133 HAREL PATRICK SAINT SULPICE SUR RISLE 01:33:44
1436 2109 ROUXELIN SANDRINE MERVILLE FRANCEVILLE 01:33:44
1437 2239 THORETON VALERIE LA FERRIERE BOCHARD 01:33:45
1438 388 CARPENTIER LAURENT SAINT MAURICE LES CHARENCEY 01:33:45
1439 1366 LE ROYER PASCAL RADON 01:33:50
1440 1197 HUBERT LUC CHANGE 01:33:52
1441 1956 POUPARD NICOLAS LAIGNE EN BELIN 01:33:53
1442 751 DUGRAIS PATRICE SAINT JULIEN DU TERROUX 01:33:54
1443 382 CANET PIERRE ALENCON 01:33:54
1444 1368 LE STRAT CHRISTOPHE MAGNY LE DESERT 01:33:56
1445 282 BOUILLY ELISE LONRAI 01:33:58
1446 1045 GOUVILLE DAVID CARPIQUET 01:33:58
1447 1760 MOULIN DAVY SURE 01:34:00
1448 2107 ROUSSEL RODOLPHE SAINT PIERRE DU PERRAY 01:34:00
1449 629 DELAHAYE FABRICE JANVILLE 01:34:01
1450 1858 PERLEMOINE MARC SALLENELLES 01:34:02
1451 1645 MARIGNIER SYLVAIN BOITRON 01:34:02
1452 1703 MERLIN OLIVIER VERSON 01:34:03
1453 895 GALLOT JEAN-JACQUES RIVES D’ANDAINE 01:34:03
1454 491 CHONDROYANNIS VINCENT ALENCON 01:34:03
1455 1587 LOUIS DIT GUERIN NICOLAS LA CHAPELLE SAINT AUBIN 01:34:04
1456 2193 STAMAR SOPHIE LA CHAPELLE VENDOMOISE 01:34:04
1457 597 DAGRON PIERRE-LUC ALENCON 01:34:05
1458 1684 MAURICE THERESE SAINT GERVAIS LA FORET 01:34:05
1459 2121 SADOUL KARINE BERUS 01:34:06
1460 515 COLAS GERALDINE LE MANS 01:34:07
1461 516 COLAS LOUIS LE MANS 01:34:07
1462 1458 LEMAITRE EMMANUEL LE MANS 01:34:08
1463 493 CHOPLIN JOHANN SAINT JEAN D’ASSE 01:34:08
1464 481 CHEVALLIER FRANTZ LA CHAPELLE SAINT AUBIN 01:34:10
1465 294 BOULMET JEREMY SAINT NAZAIRE 01:34:10
1466 434 CHAPRON CEDRIC GESNES LE GANDELIN 01:34:11
1467 69 ANDREU GILLES SAINTE SCOLASSE SUR SARTHE 01:34:11
1468 1665 MARTIN JOEL YVRE L’EVEQUE 01:34:12
1469 1792 NOSTI HUGUES OLIVIER LE MANS 01:34:13
1470 1620 MALASSIGNE JEAN-YVES LE MANS 01:34:16
1471 718 DROUET JIULIE COULAINES 01:34:17
1472 2315 VETILLARD SEBASTIEN ASSE LE BOISNE 01:34:20
1473 1540 LETIEN HERVE PERROU 01:34:22
1474 1299 LAMBERTZ BRUNO CAEN 01:34:22
1475 423 CHANDESRIS XAVIER MONTGAROULT 01:34:26
1476 213 BIGOT BENOIT AUNOU LE FAUCON 01:34:27
1477 2161 SENANT PIERRE ALENCON 01:34:28
1478 2160 SENANT MARIE ALENCON 01:34:28
1479 1086 GUIBERT JEAN-LUC YVRE L’EVEQUE 01:34:28
1480 1641 MARIE FRANCK LANDIGOU 01:34:29
1481 663 DERBEZ JEAN-CLAUDE DARVOY 01:34:29
1482 297 BOURGAUD CAMILLE CAEN 01:34:30
1483 298 BOURGAUD PAULINE CAEN 01:34:30
1484 690 DEVOIR LAURENT LA FERTE BERNARD 01:34:32
1485 1657 MARTEAU SEBASTIEN BELGEARD 01:34:33
1486 1126 HAMY ANTOINE CAEN 01:34:35
1487 568 COURTIAU LAURENCE AVENAY 01:34:36
1488 186 BERNIEAU KEVIN SAINT GERMAIN DU CORBEIS 01:34:37
1489 735 DUBREUIL AUDE SAINT GERMAIN DU CORBEIS 01:34:37
1490 446 CHARTIER PHILIPPE GUECELARD 01:34:38
1491 850 FOUCAULT CHARLYNE BOITRON 01:34:38
1492 193 BESLIER CHRISTOPHE BERUS 01:34:39
1493 2060 ROBINE JEREMY LONRAI 01:34:40
1494 328 BOZON CEDRIC MONT SAINT JEAN 01:34:40
1495 2309 VERHERBRUGGEN MATTHIEU LE MANS 01:34:42
1496 163 BEDOUET MARIE-NOELLE EVRON 01:34:44
1497 862 FOUQUES FREDERIC SAINT MARTIN DE FONTENAY 01:34:47
1498 1797 OLIN TRISTAN LORIENT 01:34:47
1499 815 FENNICHE GWENAËLLE LORIENT 01:34:47
1500 750 DUGNY GERARD PREY 01:34:47
1501 1718 MICOUREAU FABIEN LA CHAPELLE SAINT AUBIN 01:34:48
1502 1282 LAGARRIGUE FABIEN CONDE SUR SARTHE 01:34:49
1503 2293 VASSEUR SEBASTIEN MOULINS LE CARBONNEL 01:34:49
1504 1238 JORET LAURENT VELIZY VILLACOUBLAY 01:34:50
1505 378 CALLENS CLAUDE ALENCON 01:34:52
1506 1412 LECOURT HUBERT COUESMES VAUCE 01:34:52
1507 492 CHOPIN THIERRY LA BAZOGE MONTPINCON 01:34:55
1508 1786 NOGUES DAVID LE MANS 01:34:56
1509 1257 JOUY JACQUES GESNES LE GANDELIN 01:34:56
1510 1258 JUGE FABIEN VILLAINES LA JUHEL 01:34:59
1511 1038 GOURDET PATRICE ALENCON 01:35:02
1512 610 DE BAILLARD DU LYS EMMANUEL ALENCON 01:35:04
1513 1866 PERRUCHOT MILENE MARESCHE 01:35:04
1514 1603 MACE PATRICE CAEN 01:35:04
1515 313 BOUSSIF JAOUAD LE MANS 01:35:06
1516 1789 NORGEOT CELINE LONRAI 01:35:06
1517 1179 HISZ KARELLE LE FRESNE CAMILLY 01:35:07
1518 1488 LEPELTIER JEAN-PIERRE GRAMBOIS 01:35:08
1519 1050 GRANDE NATACHA PASSAIS LA CONCEPTION 01:35:08
1520 676 DESMOTTES MAGALI PASSAIS LA CONCEPTION 01:35:09
1521 176 BENESTON NELLY LE MANS 01:35:10
1522 175 BENESTON HERVE LE MANS 01:35:11
1523 2291 VASSEUR MIKAEL BALLON 01:35:11
1524 340 BRIEND GERARD SAINT MICHEL THUBEUF 01:35:13
1525 860 FOUQUERAY BERNARD MULSANNE 01:35:14
1526 2173 SEURIN STEPHANIE ALENCON 01:35:15
1527 523 COLLET DELPHINE PREVAL 01:35:15
1528 1957 POUPINET BAPTISTE ALENCON 01:35:16
1529 1059 GRIEU ANNICK CERGY 01:35:17
1530 1141 HEBERT HERVE ATHIS DE L’ORNE 01:35:17
1531 151 BEAUCHAMP DOMINIQUE NEAUFLES SAINT MARTIN 01:35:18
1532 1913 POILPRE ANDRE FALAISE 01:35:19
1533 1219 JAMES ALEXANDRE COURTOMER 01:35:19
1534 2001 RAINGUENET ESTELLE ALENCON 01:35:19
1535 2177 SIMON MICHEL FRENOUVILLE 01:35:20
1536 1644 MARIE THIERRY BLONVILLE SUR MER 01:35:22
1537 1246 JOUBERT SOAZIG ALENCON 01:35:22
1538 56 ALBINET JACQUES MONTFORT LE GESNOIS 01:35:23
1539 189 BERRIER STEPHANE ALENCON 01:35:23
1540 1682 MAURE NICOLE LA SELLE LA FORGE 01:35:24
1541 2247 TORETON PASCAL BRISSAC-QUINCE 01:35:25
1542 1022 GORSSE MATTHIEU LE MANS 01:35:25
1543 1511 LEROUVILLOIS HERVE DAMIGNY 01:35:26
1544 1607 MAHEU LUDIVINE ETIVAL LES LE MANS 01:35:28
1545 243 BODINIER BERTRAND BRAINS SUR GEE 01:35:28
1546 67 ANDRE PHILIPPE BELFONDS 01:35:30
1547 883 FROMONT MICHEL LIGNIERES-ORGERES 01:35:32
1548 1899 PIERRE JEAN-MARIE QUIMPER 01:35:32
1549 1150 HENAULT VIRGINIE ALENCON 01:35:34
1550 779 DUVAL JEAN-FRANCOIS CHAMPSECRET 01:35:34
1551 258 BONNET JORDANE ALENCON 01:35:40
1552 1865 PERRINIAUX DOMINIQUE ARGENCES 01:35:40
1553 2104 ROUSSEL CHRISTOPHE ST GERMAIN DU CORBEIS 01:35:40
1554 80 ARRIBARD YVON BILHEUX 01:35:45
1555 1188 HOUEE EMMANUEL MESSEI 01:35:46
1556 2211 TANCHON ERIC LIVAROT 01:35:47
1557 886 GABILLE FABRICE ROU MARSON 01:35:48
1558 183 BERNARD JEROMINE VERNEUIL SUR AVRE 01:35:49
1559 1765 MOYER RICHARD SAINT OUEN 01:35:51
1560 1300 LAMBOURG CLAUDE THAON 01:35:52
1561 790 EMONNET STEVE MONTFORT LE GESNOIS 01:35:53
1562 2008 RAPICAULT AURELIE BOITRON 01:35:54
1563 704 DOUARD ALAIN CAMBES EN PLAINE 01:35:54
1564 375 CAILLON OLIVIER BOITRON 01:35:55
1565 1139 HEAM JEAN-MICHEL LE VAUDREUIL 01:35:56
1566 2138 SAUDUBRAY SERGE SPAY 01:35:57
1567 149 BEATRIX VALERIE FONTAINE ETOUPEFOUR 01:35:59
1568 138 BATTAIS YOANN ALENCON 01:36:00
1569 224 BLAIS RENE TREVIERES 01:36:00
1570 562 COUENNE PHILIPPE DONVILLE LES BAINS 01:36:02
1571 2027 REUX DOMINIQUE SAINT LONGIS 01:36:03
1572 1770 NAUD VIRGINIE COULAINES 01:36:04
1573 1230 JEHAN ALAIN ROMAGNY 01:36:05
1574 608 DAVOUST VICKY MONTMERREI 01:36:07
1575 1024 GOUDEAU CORINE SAVIGNE L’EVEQUE 01:36:08
1576 620 DEBONNE PASCAL MAMERS 01:36:09
1577 2316 VICERIAT CEDRIC FLERS 01:36:10
1578 1702 MERLIER JULIE SAINT GERMAIN DE MONTGOMMERY 01:36:10
1579 2094 ROTROU YANN SAVIGNY LE TEMPLE 01:36:12
1580 2241 TIMONNIER CHRISTOPHE CUISSAI 01:36:12
1581 1480 LEMUET JULIEN ARGENTAN 01:36:12
1582 399 CAZE MAXIME LA COCHERE 01:36:12
1583 1351 LE GUILLOU CELINE ALLONNES 01:36:14
1584 1456 LEMAITRE CHRISTIAN CIRAL 01:36:21
1585 952 GAUTRET MATTHIEU SEES 01:36:23
1586 961 GERBAUD OLIVIER BAGNOLES DE L’ORNE 01:36:24
1587 1872 PESSEY AUDE ALENCON 01:36:25
1588 873 FOURNIER THIERRY CRULAI 01:36:26
1589 162 BEDODI STEPHANE SAINT SULPICE SUR RISLE 01:36:27
1590 1265 JUNCK LAURENCE SAINT MARTIN DES MONTS 01:36:29
1591 2091 ROTROU ERIC BREVANDS 01:36:31
1592 404 CERNAY WANDA MOULINS LA MARCHE 01:36:34
1593 337 BRETEAUX GUYLAINE UROU ET CRENNES 01:36:34
1594 336 BRETEAUX FABIEN UROU ET CRENNES 01:36:35
1595 1186 HOUDY BERENGERE CAEN 01:36:35
1596 2075 ROLLAND ANGELIQUE LA CHAPELLE PRES SEES 01:36:38
1597 549 CORNILLE MICHAEL MOITRON SUR SARTHE 01:36:40
1598 1676 MAUGER EMMANUELLE PARIS 01:36:42
1599 1399 LECHARPENTIER BRUNO MONTJOIE SAINT MARTIN 01:36:44
1600 2299 VAUGEOIS SOPHIE SAINT GERMAIN DU CORBEIS 01:36:46
1601 228 BLANCHE MATHILDE DAMIGNY 01:36:46
1602 2249 TOUCHET ARNAUD SEES 01:36:47
1603 1958 POUPINET VINCENT ALENCON 01:36:47
1604 485 CHEVRIER CAROLINE ALENCON 01:36:47
1605 2076 ROMAGNE ADRIEN PACE 01:36:48
1606 1856 PERIGAULT ANNE-LISE SEVREMONT 01:36:49
1607 842 FONNARD THOMAS SAINT JAMES 01:36:49
1608 476 CHEVALIER JULIE VRIGNY 01:36:50
1609 2035 RICORDEAU THIERRY MARZAN 01:36:50
1610 167 BELHOSTE LEA BRETTEVILLE SUR ODON 01:36:56
1611 77 APOLINAIRE CLAUDE LA BAZOGE 01:36:56
1612 1104 GUILLOT RENAUD PARIS 01:36:58
1613 64 ALLORY JENNIFER CANDE SUR BEUVRON 01:36:59
1614 1123 HAMON MATHILDE MONTGAROULT 01:37:00
1615 582 CUASNET FRANCK CERANS FOULLETOURTE 01:37:02
1616 308 BOURNEUF DANY LE MANS 01:37:04
1617 969 GERVAIS EMMANUEL COULOMBIERS 01:37:05
1618 685 DEVANNES ANNE VALFRAMBERT 01:37:06
1619 1276 LABBE JEAN-FRANCOIS PLEUDIHEN SUR RANCE 01:37:07
1620 2298 VAUGEOIS LUDOVIC LONLAY L’ABBAYE 01:37:07
1621 689 DEVOIR CECILE LA FERTE BERNARD 01:37:08
1622 2302 VENAULT FRANCIS SAINT VICTOR DE CHRETIENVILLE 01:37:10
1623 470 CHESNEL SOPHIE ARGENTAN 01:37:12
1624 998 GOBE FREDERIC IFS 01:37:13
1625 2273 VALABLE GAELLE GOULET 01:37:14
1626 1952 POUCHARD RICHARD CORMES 01:37:19
1627 154 BEAUMOIS LIONEL CAEN 01:37:20
1628 1635 MARESCOT STEPHANE CANCALE 01:37:20
1629 1874 PETIBON CAMILLE ALENCON 01:37:21
1630 2252 TOUSE BERNADETTE ECOUVES 01:37:21
1631 595 DAGRON CHANTAL SAINT VINCENT DES PRES 01:37:23
1632 1954 POULAIN ELEONORE CAEN 01:37:24
1633 644 DELAUNAY LILIANA ARGENTAN 01:37:24
1634 1650 MARQUES DE ALMEIDA JOSE SAINT LONGIS 01:37:25
1635 884 FROVILLE MYRIAM ECOUCHE 01:37:25
1636 2181 SIMONETTO LAURA PARIS 01:37:27
1637 2128 SAMSON GUILLAUME BLAINVILLE SUR ORNE 01:37:28
1638 939 GAULTIER BRIGITTE VILLENEUVE EN PERSEIGNE 01:37:30
1639 531 COLLIN JEAN-MARC ARCONNAY 01:37:36
1640 406 CERTAIN PATRICK CAEN 01:37:37
1641 441 CHARPENTIER LINDA SAVIGNE L’EVEQUE 01:37:39
1642 1525 LESAGE ANDRE FOURNEAUX LE VAL 01:37:40
1643 417 CHAMBRIER THIERRY LE MANS 01:37:40
1644 1418 LEDRU LUDOVIC LAIGNE EN BELIN 01:37:43
1645 654 DEMOULIN STEPHANIE CAEN 01:37:45
1646 2118 RUPPE FABIEN LE MANS 01:37:45
1647 1119 HAMEL JACQUES SAINT SATURNIN 01:37:47
1648 1857 PERINET KATY LA FERTE-MACE 01:37:48
1649 338 BRIAND MAGALI MAYENNE 01:37:52
1650 1495 LEPLEUX CHRISTINE RANES 01:37:52
1651 665 DEROUAULT SYLVAIN HERMIVAL LES VAUX 01:37:52
1652 1964 POUSSE PHILIPPE LAVERNAT 01:37:54
1653 2129 SANCHEZ MIGUEL ALLONNES 01:37:55
1654 1393 LEBRUN OLIVIER SAINT GERMAIN DU CORBEIS 01:37:56
1655 1491 LEPILLER DIDIER RICARVILLE 01:37:58
1656 699 DODARD LAURENT SAINT ANDRE SUR ORNE 01:38:00
1657 1742 MOREAU MICKAËL BRETIGNOLLES LE MOULIN 01:38:01
1658 1617 MAISONNEUVE CELINE BURE 01:38:03
1659 590 DABOUT ARNAUD PLUNERET 01:38:03
1660 1868 PERSONENI PASCAL ALENCON 01:38:04
1661 1478 LEMONNIER GERALDINE AVENAY 01:38:07
1662 877 FRIN JOHAN CORPS NUS 01:38:09
1663 1187 HOUEE BERNARD FLERS 01:38:10
1664 817 FERAY CARINE FLERS 01:38:10
1665 379 CAMARA MAKAN ORLEANS 01:38:10
1666 1588 LOUISFERT THIERRY FONTENAY SOUS BOIS 01:38:11
1667 1790 NORMAND NICOLAS SAINT AUBIN D’APPENAI 01:38:13
1668 871 FOURNIER FRANCK LA FERRIERE AU DOYEN 01:38:14
1669 2341 ZEHNICH MYLENE CHERRE 01:38:14
1670 1903 PINCHON MICHEL GESNES LE GANDELIN 01:38:16
1671 2254 TOUSSAINT OLIVIER ALENCON 01:38:18
1672 2307 VERHAEGHE CLAUDY FATINES 01:38:19
1673 995 GIREL STEPHANE LE MANS 01:38:22
1674 798 ERNOULT THIERRY ALLONNES 01:38:24
1675 577 CROISARD DIDIER LUCEAU 01:38:25
1676 1947 POTTIER ELODIE VILLAINES LA JUHEL 01:38:26
1677 1710 METAIRIE VALERIE LA LACELLE 01:38:26
1678 1504 LERAT NICOLAS MAY SUR ORNE 01:38:26
1679 133 BASLE CHRISTELLE MARTIGNE SUR MAYENNE 01:38:27
1680 2126 SALMON MARC ARCONNAY 01:38:27
1681 510 COCHON EMMANUEL BOUERE 01:38:27
1682 59 ALIX BERTRAND LONRAI 01:38:27
1683 1720 MILLET SANDRINE OUISTREHAM 01:38:28
1684 374 CAGNARD ARNAUD CAEN 01:38:29
1685 1352 LE MOAL EMMANUELLE OUISTREHAM 01:38:29
1686 733 DUBOST CINDY SARCEAUX 01:38:30
1687 2168 SERRE VERONIQUE LE MESNIL EUDES 01:38:31
1688 1766 MULLEY MARIANNE SAINT GERMAIN DU CORBEIS 01:38:34
1689 1226 JEAN PATRICIA GAUVILLE 01:38:35
1690 725 DRUART MONIQUE UROU ET CRENNES 01:38:36
1691 776 DUVAL CEDRIC COULOMBIERS 01:38:36
1692 1842 PEAN STEPHANE ANGERS 01:38:39
1693 1443 LEGRAND LAURENCE AUBUSSON 01:38:44
1694 2012 RAZET HELENE VIGNATS 01:38:45
1695 1679 MAUNOURY HERVE FALAISE 01:38:46
1696 757 DUMESNIL SEBASTIEN AMBRIERES LES VALLEES 01:38:48
1697 431 CHAPIN GAELLE CLERMONT FERRAND 01:38:50
1698 2144 SAUVAGE LAURENCE ETIVAL LES LE MANS 01:38:54
1699 771 DURFORT PHILIPPE ROUILLON 01:38:57
1700 1142 HEBERT LAURENT BENY SUR MER 01:38:58
1701 61 ALLAIN JEAN-PHILIPPE CHANCE 01:38:59
1702 1441 LEGRAND CATHERINE DOMAGNE 01:38:59
1703 786 EDMOND CHRISTIAN LA PUISAYE 01:39:01
1704 2186 SOLLIER JACKY DAMIGNY 01:39:02
1705 1004 GODIER BERENICE SAINT HILAIRE DU HARCOUET 01:39:02
1706 2251 TOUPIN CELINE CHERANCE 01:39:08
1707 1200 HUE DOMINIQUE MESSEI 01:39:09
1708 2150 SCHVAN DANIEL LA MESNIERE 01:39:10
1709 547 CORMIER VALERE SEES 01:39:10
1710 824 FERRE NELLY SAINT FRAIMBAULT 01:39:11
1711 1174 HINAUX ALEXANDRE CARPIQUET 01:39:11
1712 1507 LERAY JUDICAEL LAVARDIN 01:39:13
1713 1897 PICROUILLERE YANNICK SOUVIGNE SUR SARTHE 01:39:19
1714 384 CANU VALERY COLOMBIERS 01:39:21
1715 2040 RIO CLAUDINE VERNEUIL SUR AVRE 01:39:25
1716 137 BATTAIS ARTHUR NANTES 01:39:26
1717 1596 LOUVEL BERTRAND RENNES 01:39:26
1718 221 BLAIS HELENE ALENCON 01:39:27
1719 1993 RADIGUE GERALDINE LA FERTE MACE 01:39:30
1720 2080 ROMET OLIVIER LE MANS 01:39:30
1721 2230 THIEULIN ELODIE SAINT HILAIRELA GERARD 01:39:31
1722 1838 PAUTREL SEBASTIEN SAINT PATERNE 01:39:32
1723 1747 MORICE CHRISTOPHE SAINT LANGIS LES MORTAGNE 01:39:33
1724 985 GIRARD ARNAUD BUBERTRE 01:39:34
1725 677 DESPIERRES FLORENCE PUTOT EN BESSIN 01:39:36
1726 986 GIRARD AURELIE BUBERTRE 01:39:36
1727 76 ANTUNES DE SOUSA JOSEFINA CAEN 01:39:37
1728 66 ANDRE JEAN-MARC MORTREE 01:39:39
1729 1924 POMMIER SYLVAIN LE MANS 01:39:40
1730 1643 MARIE PASCAL LOUVIERS 01:39:40
1731 2165 SERGENT THIERRY LOUE 01:39:44
1732 211 BIGOT ALEXIS SAINTE GENEVIEVE 01:39:48
1733 1941 POTIER TIPHAINE SEES 01:39:54
1734 55 ALAIN FRANCOISE CHOLET 01:39:57
1735 502 CLEMENT DANIEL LA FLECHE 01:39:58
1736 911 GARMENDIA DAVID RUAUDIN 01:39:58
1737 745 DUFAY FREDERIC CENON 01:40:00
1738 705 DOUDET FREDERIC OISSEAU 01:40:01
1739 1294 LAMACHE SEBASTIEN FYE 01:40:04
1740 452 CHATEL ISABELLE HELOUP 01:40:08
1741 1807 ORTIZ LAURENCE LA FERTE MACE 01:40:09
1742 881 FRITSCH CYRIL LE MANS 01:40:10
1743 1272 KIENE EMILIE ALENCON 01:40:11
1744 2124 SALLES JEAN-YVES AMFREVILLE 01:40:12
1745 2154 SEFYS ANAÏS QUETTEVILLE 01:40:13
1746 2108 ROUSSELET ALAIN MESNIL SUR L’ESTREE 01:40:14
1747 2013 RAZET MICHEL VIGNATS 01:40:16
1748 1410 LECOQ JEAN-PIERRE SAINT OUEN SUR ITON 01:40:16
1749 1409 LECOQ ALEXANDRE TOUROUVRE 01:40:16
1750 756 DUJARRIER STESSY ARGENTAN 01:40:17
1751 466 CHESNEAU MATHILDE PARIS 01:40:19
1752 1107 GUINOT AMELIE MAHERU 01:40:22
1753 796 EPINETTE ALAIN RAI 01:40:22
1754 141 BAUDOUIN EMMANUEL THIAIS 01:40:24
1755 264 BOSCHER YOANN SAINT GERMAIN DU CORBEIS 01:40:24
1756 1460 LEMAITRE GAEL CHANTRIGNE 01:40:25
1757 1754 MORINEAU SAMUEL LA LANDE DE GOULT 01:40:26
1758 1136 HAUTREUX GILBERT SAINT LONGIS 01:40:27
1759 1347 LE GOFF JACKY LE MANS 01:40:29
1760 1342 LE CORRE FRANCK BOUCE 01:40:30
1761 1334 LAURENT MICHEL EVRON 01:40:31
1762 1892 PICHONNIER PAUL SEES 01:40:32
1763 2031 RICHARD JEAN-CLAUDE VILLAINES LA JUHEL 01:40:34
1764 321 BOUVET CHRISTELLE COULAINES 01:40:35
1765 142 BAUDOUIN MICHEL PFETTERHOUSE 01:40:37
1766 1387 LEBOUTEILLER MICKAEL ESQUAY NOTRE DAME 01:40:38
1767 621 DEBUIRE RENE DOMFRONT EN CHAMPAGNE 01:40:41
1768 1753 MORIN THIERRY VILLERABLE 01:40:42
1769 803 FAIVRE RICHARD TUFFE 01:40:44
1770 1143 HEBERT VALERIE BETTON 01:40:45
1771 1719 MILCENT AURELIEN TANVILLE 01:40:48
1772 1138 HAYE SYLVAIN ECOUVES 01:40:48
1773 198 BETTON JEAN-PIERRE ARCONNAY 01:40:49
1774 1365 LE ROYER BARBARA ARCONNAY 01:40:49
1775 2092 ROTROU REMI SAINT PATERNE 01:40:50
1776 1663 MARTIN DOMITILLE HOUPPEVILLE 01:40:51
1777 983 GINISTY MAURICE SOLIGNY LA TRAPPE 01:40:52
1778 793 ENOUF NICOLAS CONDE SUR SARTHE 01:40:52
1779 2198 SURMONT JULIEN BALLON 01:40:57
1780 679 DESPRE CHRISTINE VERSAINVILLE 01:40:58
1781 708 DOUVENOULT CELINE CHERISAY 01:41:00
1782 1568 LINDREC SYLVIE ECOUCHE 01:41:00
1783 421 CHAMPION MAXIME SAVIGNE L’EVEQUE 01:41:01
1784 487 CHIVET DAVID ARGENTAN 01:41:02
1785 488 CHIVET SEVERINE ARGENTAN 01:41:02
1786 592 DABOUT QUENTIN CERISE 01:41:03
1787 1227 JEANNE GWENAELLE LE HAVRE 01:41:04
1788 2321 VIGAN SANDRINE MONDEVILLE 01:41:04
1789 217 BINET ELISABETH CAEN 01:41:04
1790 270 BOUCHER DOMINIQUE ALENCON 01:41:11
1791 611 DE BEAUREGARD RENE LA CELLE SAINT CLOUD 01:41:12
1792 2294 VAUCELLE ARNAUD SAINT JEAN SUR MAYENNE 01:41:13
1793 1784 NOEL CHRISTOPHE COULOMBIERS 01:41:14
1794 1009 GODMER ALAIN SAINT SATURNIN 01:41:15
1795 439 CHARLES VALERIE SAINT OUEN DES TOITS 01:41:18
1796 732 DUBOIS YANNICK LOUAILLES 01:41:18
1797 2223 TESSIER FLORENCE CHAILLOUE 01:41:18
1798 438 CHARLES ERIC SAINT OUEN DES TOITS 01:41:18
1799 695 DIEU-GUILLOT MARIE-LAURE PARIS 01:41:19
1800 578 CROISE FRANCK DURTAL 01:41:20
1801 894 GALLIER HERVE BEAUMONT SUR SARTHE 01:41:20
1802 1884 PHILIPPE GWENAEL LOUVIERES EN AUGE 01:41:20
1803 1328 LATOUR ANNE-SOPHIE LE MANS 01:41:24
1804 212 BIGOT AXELLE LE MANS 01:41:24
1805 110 BARANGER GERARD LE MANS 01:41:25
1806 513 COHU GUILLAUME VITRAI SOUS L’AIGLE 01:41:26
1807 835 FLEURY DAMIEN ARCONNAY 01:41:27
1808 990 GIRARD SYLVIE OISSEAU 01:41:28
1809 291 BOULIER BRUNO FALAISE 01:41:28
1810 1748 MORIN CORINNE VILLERABLE 01:41:33
1811 656 DENIS AURELIE ARCONNAY 01:41:43
1812 1614 MAINE BENJAMIN ARCONNAY 01:41:45
1813 2216 TAYEB CHRISTIAN DIVES SUR MER 01:41:45
1814 1806 ONFROY SYLVIANE MORTREE 01:41:46
1815 1170 HEUDIARD VALERIE RANES 01:41:50
1816 2340 YVARD PATRICIA VERSAINVILLE 01:41:51
1817 683 DESTIGNY MICHEL BREVILLE LES MONTS 01:41:52
1818 1632 MARCHAIS PHILIPPE ISIGNY SUR MER 01:41:53
1819 165 BEKHTI VANESSA LE MANS 01:41:53
1820 933 GAUDINIERE SOPHIE SOUILLE 01:41:57
1821 383 CANTIN CAROLINE SOUILLE 01:41:57
1822 854 FOUCHER SEBASTIEN SOUILLE 01:41:57
1823 1648 MAROQUESNE FRANCOIS LAIZE LA VILLE 01:42:04
1824 1521 LEROY ANNE-MARIE ECOUVES 01:42:06
1825 1067 GUEMARD GUILLAUME PARIS 01:42:10
1826 1068 GUEMARD PATRICK DAMIGNY 01:42:10
1827 1730 MONGUILLON NICOLAS SAINTE SABINE SUR LONGEVE 01:42:11
1828 2018 RENAUDIN DANIELLE SAINT PAUL LE GAULTIER 01:42:12
1829 57 ALDEBERT SOPHIE L’AIGLE 01:42:15
1830 2339 YVARD CLAUDE VERSAINVILLE 01:42:16
1831 744 DUCREY PASCAL ROISSY EN BRIE 01:42:16
1832 639 DELAPIERRE BEATRICE CAEN 01:42:17
1833 419 CHAMPION DAVID CERNAY 01:42:17
1834 2009 RATEL SYLVAIN MULSANNE 01:42:21
1835 1796 OBJOIS EMMANUEL PASSAIS LA CONCEPTION 01:42:25
1836 1520 LEROUX CHADAIGNE CLAIRE THORIGNE SUR DUE 01:42:25
1837 2030 RICHARD FRANCOIS-LUC BENOUVILLE 01:42:26
1838 1018 GONTIER CHARLOTTE ALENCON 01:42:26
1839 1505 LERAT PHILIPPE SAINT LEGER EN YVELINES 01:42:26
1840 926 GASPARD MANUEL BOUTIGNY PROUAIS 01:42:28
1841 2342 ZIMMERMANN PHILIPPE SAINT MARTIN DE FONTENAY 01:42:29
1842 668 DESAVEINES PATRICIA CAEN 01:42:32
1843 1560 LIGER MARC LAVAL 01:42:33
1844 944 GAUTER NIL PARIS 01:42:34
1845 778 DUVAL GILBERT LA LANDE DE GOULT 01:42:35
1846 1497 LEPONT BOULARD VALERIE CAIRON 01:42:39
1847 303 BOURGINE SYLVIE ECOUVES 01:42:45
1848 302 BOURGINE STEPHANE RADON 01:42:45
1849 2194 STEUNOU VALERIE GOMETZ LE CHATEL 01:42:46
1850 274 BOUCHOU FRANCOIS TOURS 01:42:48
1851 1894 PICOT ANITA COULONCES 01:42:49
1852 1708 MESNIER BRIGITTE BLAINVILLE SUR ORNE 01:42:50
1853 1837 PAUTREL PATRICK PLEINE FOUGERES 01:42:54
1854 878 FRIN JULIEN BAYEUX 01:42:55
1855 369 CADERON ISABELLE STAINS 01:43:01
1856 148 BEASSE JOEL BONCHAMP LES LAVAL 01:43:04
1857 768 DURAND MICHEL VAIGES 01:43:05
1858 1394 LECAMUS BRUNO ASSE LE BOISNE 01:43:06
1859 460 CHEMIN BRUNO MEUNG SUR LOIRE 01:43:08
1860 180 BERGEOT GUILLAUME LE MANS 01:43:09
1861 569 COURTOIS JULIEN VILLEPORCHER 01:43:09
1862 1324 LAROSE GHISLAINE SAINT GERMAIN DU CORBEIS 01:43:10
1863 1936 POSTEL GILLES SAINT GERMAIN DU CORBEIS 01:43:11
1864 1361 LE ROLLAND MICHELLE RANVILLE 01:43:12
1865 323 BOUVIER FRANCIS LONLAY L’ABBAYE 01:43:13
1866 1063 GRODWOHL LUC LAMNAY 01:43:17
1867 2058 ROBIN LUC FRENOUVILLE 01:43:18
1868 928 GAUBERT CHANTAL MONDEVILLE 01:43:20
1869 206 BIDAULT FLORENCE ALENCON 01:43:22
1870 809 FAVERIS SANDRINE ARGENTAN 01:43:22
1871 2250 TOULLELAN FABRICE LALEU 01:43:27
1872 1583 LORGOUILLOUX CHRISTELLE LALEU 01:43:27
1873 418 CHAMINADE GUILLAUME PARIS 01:43:29
1874 124 BARJOT VALERIE PARIS 01:43:29
1875 2043 RIPEAUX VIRGINIE SAINT DENIS SUR SARTHON 01:43:30
1876 1372 LEBARBIER JEAN-CLAUDE CHAMPFLEUR 01:43:31
1877 709 DOUVENOULT JEROME CHERISAY 01:43:31
1878 648 DELAVILLE STEPHANE BERNIERES SUR MER 01:43:33
1879 2153 SECK LAMINE ISSY LES MOULINEAUX 01:43:34
1880 1113 GUY STEPHANE PARIS 01:43:34
1881 352 BROUSSIN PEGGY LA LACELLE 01:43:35
1882 591 DABOUT BERNARD VERNON 01:43:36
1883 1341 LE CLECH BRUNO MESSEI 01:43:40
1884 844 FONTAINE GILLES CONDE SUR SARTHE 01:43:43
1885 681 DESPREZ ISABELLE GIVENCHY EN GOHELLE 01:43:48
1886 723 DROUIN AURELIE CONDE SUR SARTHE 01:43:50
1887 1744 MOREAU SANDRINE GRAINVILLE SUR ODON 01:43:52
1888 532 CÔME FRANCOISE SAINT REMY DE SILLE 01:43:58
1889 1800 OLIVIER PATRICIA SAI 01:44:00
1890 893 GALANTE RENAUD SAINT NICOLAS DES BOIS 01:44:03
1891 1827 PARPAILLON JEAN-KARL CONDE SUR SARTHE 01:44:04
1892 930 GAUBERT XAVIER DAMIGNY 01:44:07
1893 1454 LELIEVRE YANNICK ALENCON 01:44:08
1894 424 CHANTEAU LUCIE ALENCON 01:44:08
1895 1864 PERRIN MAGALI HEROUVILLE SAINT CLAIR 01:44:08
1896 2276 VALENTINY FRANCK BLAINVILLE SUR ORNE 01:44:09
1897 929 GAUBERT OLIVIER MONDEVILLE 01:44:10
1898 60 ALLAIN JEAN-CHRISTOPHE HEROUVILLE SAINT CLAIR 01:44:10
1899 831 FIEFFE MICHEL IFS 01:44:11
1900 363 BUON PASCAL BRETTE LES PINS 01:44:11
1901 726 DUBE AMELIE LA FERRIERE AUX ETANGS 01:44:14
1902 235 BLONDEAU MAUD TICHEVILLE 01:44:14
1903 1214 HYVON CLAUDE LE MANS 01:44:15
1904 1005 GODIER ISABELLE BUAIS 01:44:20
1905 1382 LEBOCQ PASCAL COQUAINVILLIERS 01:44:20
1906 1242 JOSSET- LE BARBENCHON YANNICK CORMELLES LE ROYAL 01:44:21
1907 1746 MORETTI CORINNE BASLY 01:44:22
1908 2067 ROCHER JACQUES SAINT HILAIRE LE CHATEL 01:44:24
1909 329 BRAJDIC ZIVKO MAMERS 01:44:25
1910 1979 PROVOST FRANK CONLIE 01:44:28
1911 1654 MARQUET HUGUES ETERVILLE 01:44:34
1912 1573 LISON VINCENT MERE 01:44:35
1913 1156 HERBELIN SANDRINE MERE 01:44:36
1914 128 BARRE CHRISTIAN AMBRIERES LES VALLEES 01:44:39
1915 536 COPIN ANNABELLE DAMIGNY 01:44:39
1916 1463 LEMAITRE STEPHANIE ANCINNES 01:44:42
1917 1254 JOUSSELIN AMBRE SAINT GERVAIS DU PERRON 01:44:43
1918 917 GARNIER REMY RENNES 01:44:44
1919 585 CUTTE MICKAEL ALENCON 01:44:45
1920 1430 LEFRANCOIS CELINE ALENCON 01:44:45
1921 1424 LEFEVRE CHRISTOPHE SAINT SAMSON DE BONFOSSE 01:44:46
1922 514 COIRIER MICKAEL ETIVAL LES LE MANS 01:44:49
1923 210 BIGNON MARIE-ESTELLE SAINT JAMES 01:44:49
1924 651 DELLIERE ALAIN PARIS 01:44:50
1925 132 BARRETEAU LAURENT LE MELE SUR SARTHE 01:44:52
1926 717 DROU ANNIE LE MANS 01:44:53
1927 737 DUBUISSON NOELLA MOULINS LE CARBONNEL 01:44:53
1928 518 COLIN MARGOT BLAINVILLE SUR ORNE 01:44:53
1929 497 CLAISSE CHRISTIANE HEBECOURT 01:44:53
1930 603 DAUGEARD ISABELLE SAINT DENIS LE GAST 01:44:56
1931 713 DRILLON MAXIME BOULOGNE-BILLANCOURT 01:44:59
1932 1518 LEROUX MARIE-NOËLLE OISSEAU 01:45:02
1933 2256 TOUTAIN STEVE MUTRECY 01:45:03
1934 891 GAILLARD STEPHANE BERUS 01:45:03
1935 829 FESSELIER MARTIAL SAINT PIERRE DU FRESNE 01:45:03
1936 1486 LEPAS LUDIVINE LE MESNIL ROUXELIN 01:45:04
1937 1653 MARQUET FABIEN MORTAGNE AU PERCHE 01:45:09
1938 2116 RUBINI PHILIPPE CHAMPSECRET 01:45:15
1939 1151 HENIN GUY TUFFE 01:45:17
1940 767 DURAND LAETITIA SAINT MARS SUR COLMONT 01:45:18
1941 401 CEDILLE SIMONE AMIENS 01:45:19
1942 1664 MARTIN JEAN-LOUIS LA HOGUETTE 01:45:19
1943 1099 GUILLEMIN CHANTAL LE MANS 01:45:22
1944 1656 MARTEAU KARINE BELGEARD 01:45:22
1945 999 GOBE SAMUEL ALENCON 01:45:25
1946 959 GEORGES CHANTAL MONTFORT LE GESNOIS 01:45:35
1947 1875 PETIT AURELIEN ALENCON 01:45:36
1948 192 BESIAU BRUNO VILLENEUVE EN PERSEIGNE 01:45:37
1949 1391 LEBRETON PHILIPPE DAMIGNY 01:45:39
1950 1561 LIGERON DANIELE VERSAINVILLE 01:45:42
1951 1090 GUIBOUT ANNICK ALENCON 01:45:42
1952 1198 HUCHETTE CHRISTELLE SAINT NICOLAS DES BOIS 01:45:44
1953 1736 MONTAGNER PASCAL VINCENNES 01:45:47
1954 1652 MARQUET BRIGITTE ANGERS 01:45:55
1955 1271 KEROUAULT LAURENCE MUZILLAC 01:45:56
1956 1296 LAMBERT JOCELYNE MUZILLAC 01:45:56
1957 1599 LOUVET PAUL RI 01:46:04
1958 1713 MEUNIER FLORIANE COMBS LA VILLE 01:46:06
1959 1693 MENAGER PASCAL LE GUE DE LA CHAINE 01:46:10
1960 1377 LEBIGOT MARIE-CHRISTINE HUSSON 01:46:10
1961 1130 HARDY JOEL AUNOU SUR ORNE 01:46:12
1962 223 BLAIS PATRICK CERISE 01:46:13
1963 257 BONNEAU SANDRA MOULAY 01:46:13
1964 1467 LEMERCIER DANIEL DAMIGNY 01:46:39
1965 1752 MORIN PATRICIA LA CHAPELLE D’ANDAINE 01:46:48
1966 277 BOUDIN SYLVAIN LA CHAPELLE D’ANDAINE 01:46:48
1967 1971 PREVOST REMY LA FERRIERE BECHET 01:46:52
1968 293 BOULLOT PASCAL ETERVILLE 01:47:08
1969 2085 ROSEL CHRISTIAN FLERS 01:47:09
1970 359 BRUNET VIVIEN VALFRAMBERT 01:47:13
1971 475 CHEVALIER ISABELLE VRIGNY 01:47:15
1972 1212 HURON CLEMENCE SAINT PIERRE DES NIDS 01:47:16
1973 1213 HURON JOEL GESNES LE GANDELIN 01:47:17
1974 794 ENTERLIN AMELIE LE MANS 01:47:19
1975 1041 GOUSSE RODOLPHE LE MANS 01:47:20
1976 250 BOIVIN CLAUDE LE MANS 01:47:24
1977 1592 LOUVEAU CHRISTELE MAYENNE 01:47:27
1978 1057 GRELEE ISMANE GRANDCHAMP 01:47:27
1979 1966 POUSSIER SEBASTIEN LONRAI 01:47:27
1980 789 ELUARD FLORENCE VERETZ 01:47:30
1981 691 DHOOGHE NATHACIA BONNEFOI 01:47:31
1982 1750 MORIN FRANCOISE VILLERABLE 01:47:34
1983 1686 MAYET MARIUS BOITRON 01:47:36
1984 867 FOUREAU GERARD ARCONNAY 01:47:37
1985 101 BAILEY ABIGAIL FONTENAY SOUS BOIS 01:47:40
1986 2166 SERIT NICOLAS SAINT JEAN D’ASSE 01:47:42
1987 373 CADUDAL THIERRY SAINT GERMAIN DU CORBEIS 01:47:43
1988 888 GABORIT ALYSSON NEUFCHATEL EN SAOSNOIS 01:47:47
1989 2010 RAUX KARINE LE CHEVAIN 01:47:47
1990 317 BOUTIN DOMINIQUE ALENCON 01:47:48
1991 558 COSTA MACHADO NICOLE DAMIGNY 01:47:52
1992 233 BLIN STEPHANE SAINT LOUP DE FRIBOIS 01:47:56
1993 1578 LOISON MARIE-CLAUDE LE MANS 01:48:01
1994 800 ETIENNE VERONIQUE ALENCON 01:48:02
1995 315 BOUTEMIN PATRICIA SAINT HILAIRE DU HARCOUET 01:48:12
1996 1373 LEBASSAC DOMINIQUE SAINT HILAIRE DU HARCOUET 01:48:12
1997 398 CAZE GABRIELLE LA COCHERE 01:48:13
1998 875 FRESLON JENNIFER SAINT MARCEAU 01:48:17
1999 1453 LELIEVRE NICOLAS LAVAL 01:48:18
2000 498 CLAISSE JULIEN GRATTEPANCHE 01:48:20
2001 826 FERREIRA NETO DELPHINE ALENCON 01:48:21
2002 240 BLOTTIERE PATRICK BOURG LE ROI 01:48:21
2003 2134 SASSIER BRIGITTE ECOUVES 01:48:34
2004 2086 ROSEL CLAUDINE FLERS 01:48:41
2005 1034 GOULLET DAMIEN LA FERTE BERNARD 01:48:42
2006 2003 RAISON JEAN-CHARLES LA LACELLE 01:48:43
2007 596 DAGRON MATHIEU ECOUVES 01:48:43
2008 2078 ROMAIN ESTELLE ARGENTAN 01:48:44
2009 349 BROU SEBASTIEN DOMFRONT 01:48:56
2010 770 DURAND WILLIAM BAGNOLES DE L’ORNE 01:48:57
2011 910 GARDIEN SYLVAIN ARCONNAY 01:48:59
2012 490 CHOJNACKI DAVID LE THEIL SUR HUISNE 01:49:02
2013 1534 LESUR SERGE LA CHAPELLE PRES SEES 01:49:05
2014 1696 MENARD JEAN-MARC CHASSE 01:49:05
2015 1315 LANGLAIS MICKAEL SAINT REMY DES MONTS 01:49:10
2016 2184 SOLE PIERRE ALENCON 01:49:14
2017 50 ACHARD DE LA VENTE AMAURY SAINT MARS D’EGRENNE 01:49:27
2018 1575 LOBRY SANDRA PONT L’EVEQUE 01:49:27
2019 2142 SAUTREUIL NOËLLE BLONVILLE SUR MER 01:49:27
2020 1110 GUISSE SAMBA SAINT MARTIN AUX CHARTRAINS 01:49:28
2021 674 DESLEUX CORINNE SAINT HYMER 01:49:28
2022 504 CLEMENT SERGE TROUVILLE SUR MER 01:49:28
2023 1526 LESAGE SABRINA CRISTOT 01:49:31
2024 2191 SOULBIEU CHANTAL MOULINS SUR ORNE 01:49:33
2025 836 FLEURY JEAN-FRANCOIS SAVONNIERES 01:49:33
2026 410 CHABLE FRANCIS CAUVIGNY 01:49:38
2027 2215 TAVARES MURIEL LE MANS 01:49:40
2028 197 BETTON ELISE ALENCON 01:49:43
2029 2148 SCHERER LAURENCE ECOUVES 01:49:52
2030 2288 VARLET MARC MAYENNE 01:49:53
2031 456 CHAUVEAU JOËL SAINT BIEZ EN BELIN 01:50:03
2032 1161 HERISSON MARYLINE SAINT MAIXENT 01:50:13
2033 2105 ROUSSEL ISABELLE CERISE 01:50:13
2034 982 GIMER VIRGINIE HESLOUP 01:50:17
2035 1115 HALLEY ISABELLE HESLOUP 01:50:17
2036 607 DAVOUST SERGE SEES 01:50:25
2037 1250 JOURDAIN ELSA CHENAY 01:50:26
2038 1251 JOURDAIN PASCAL CHENAY 01:50:26
2039 1695 MENARD CAROLINE VILLENEUVE EN PERSEIGNE 01:50:50
2040 96 BACHELET FRANCOISE LE MANS 01:50:50
2041 97 BACHELET SERGE LE MANS 01:50:51
2042 715 DROLET ANDRE ALENCON 01:50:52
2043 1852 PERDEREAU MICHEL SAINT GERMAIN DU CORBEIS 01:50:53
2044 1550 LEVEILLE SANDRINE ECOUVES 01:50:55
2045 1078 GUERIN VALERIE MEZIERES EN DROUAIS 01:50:56
2046 847 FORGET JOËL BERUS 01:51:01
2047 1814 OUTREQUIN ALAIN BLAY 01:51:09
2048 1832 PATRY-POUSSIN AUDREY ALENCON 01:51:15
2049 262 BOREE MICKAEL PREVELLES 01:51:15
2050 1538 LETESSIER CHRISTOPHE ECOUCHE LES VALLEES 01:51:17
2051 2334 WAGNER ERIC CHAMPFLEUR 01:51:20
2052 103 BALMAYER BERNARD LE MANS 01:51:40
2053 468 CHESNEL JOSEPH ST GEORGES DES GROSEILLERS 01:51:41
2054 1732 MONIN BEATRICE PARIS 01:51:47
2055 1320 LAPORTE ARTHUR BETHON 01:52:01
2056 700 DOLEANS DIMITRI THIRON-GARDAIS 01:52:03
2057 557 COSTA MACHADO CARINE ALENCON 01:52:09
2058 2233 THOMAS FRANCOIS ALENCON 01:52:26
2059 143 BAUDOUX AURELIEN SAINT GEORGES D’ANNEBECQ 01:52:32
2060 890 GAHERY PASCAL DAMIGNY 01:52:36
2061 1590 LOUVARD ALAIN DAMIGNY 01:52:39
2062 670 DESCHAMPS MARIE DAMIGNY 01:52:40
2063 1734 MONNIETTE THIERRY ECOUVES 01:52:41
2064 1027 GOUGEON VERONIQUE MAYENNE 01:52:43
2065 1450 LELARGE SIMONE ALENCON 01:52:45
2066 701 DOMAIN CELINE CHERRE 01:52:59
2067 1438 LEGENTIL SOPHIE CHANGE 01:52:59
2068 156 BEAURY SABRINA GESNES LE GANDELIN 01:53:05
2069 377 CALLEC JOSIANE BRIIS SOUS FORGES 01:53:28
2070 229 BLANCHOUIN SYLVIE MAYENNE 01:53:31
2071 1025 GOUGAUT DIDIER CHAMPFLEUR 01:53:35
2072 2206 TAHAR-BERRABAH LINDA MORTAGNE AU PERCHE 01:53:46
2073 467 CHESNEL CLAUDE LONRAI 01:53:48
2074 2028 REZE KEVIN JUBLAINS 01:53:50
2075 2324 VILETTE AURORE ALENCON 01:53:50
2076 2325 VILETTE FREDERIC ALENCON 01:53:51
2077 2068 ROCHER JEAN-CLAUDE SAINT VICTOR DE RENO 01:53:55
2078 2069 ROCHER SEBASTIEN HEROUVILLE SAINT CLAIR 01:53:55
2079 1841 PAVE CLAUDE LA BAZOGE 01:54:16
2080 190 BERTHELOT ANDRE ROU MARSON 01:54:28
2081 859 FOULON ANNIE GESNES LE GANDELIN 01:54:31
2082 1727 MOLZA PHILIPPE BERUS 01:54:37
2083 570 COUSIN EMMANUEL ALENCON 01:54:37
2084 571 COUSIN STEPHANIE ALENCON 01:54:37
2085 2195 SUARD DOMINIQUE ARQUENAY 01:54:43
2086 1237 JORE JEAN-YVES VERSON 01:54:43
2087 1017 GOMARD EMMANUEL DOLLON 01:55:02
2088 1764 MOUSTEY YVES TREON 01:55:07
2089 1080 GUESDON DIDIER DAMIGNY 01:55:19
2090 2122 SAINT GERMAIN AMELIE SAINT MANDE 01:55:19
2091 1002 GODET ERIC POTIGNY 01:55:22
2092 1955 POUPARD JEAN-LUC SAINT GERMAIN DU CORBEIS 01:55:38
2093 2005 RAMOND FRANCOIS YZEURE 01:55:55
2094 992 GIRARDIN CHARLENE ALENCON 01:55:56
2095 543 CORMIER MICHEL ALENCON 01:56:07
2096 425 CHANTELOUP MATHILDE ALENCON 01:56:07
2097 2208 TAILLEFER KATIA LOUCE 01:56:09
2098 408 CHABLE CLAUDE LA FRESNOYE 01:56:38
2099 1037 GOUPIL DOMINIQUE DOMFRONT 01:56:39
2100 1912 POIDVIN MAXIME LONRAI 01:56:47
2101 2065 ROCHE VINCENT RENNES 01:56:48
2102 1987 QUEUDEVILLE DAVID SAINT PAUL 01:56:50
2103 2179 SIMON MICKAËL EQUEURDREVILLE HAINNEVILLE 01:56:54
2104 1114 GUYON FRANCOIS GARCHES 01:57:00
2105 1461 LEMAITRE GWENAELLE ECOUVES 01:57:06
2106 1880 PEUDUPIN CLAUDINE SAINT CHRISTOPHE DU LIGNERON 01:57:13
2107 1402 LECHAT FRANCK LA FLECHE 01:57:15
2108 1401 LECHAT FABIENNE LA FLECHE 01:57:16
2109 1942 POTIGNY JEROME CARPIQUET 01:57:25
2110 763 DURAND ALAIN CHAUFOUR NOTRE DAME 01:57:52
2111 2149 SCHVAN CATHERINE LA MESNIERE 01:58:10
2112 1647 MARNE VINCENT CAEN 01:58:19
2113 1855 PEREZ ELIE PARIS 01:58:20
2114 1330 LAUNAY DENIS ARCONNAY 01:58:32
2115 1618 MAJOREL CHRISTIAN VERSON 01:58:32
2116 1715 MEZIERE CHRISTOPHE ARCONNAY 01:58:52
2117 1909 PLAT GWENAËL PARIS 01:58:59
2118 1722 MOATTI HANNAH PARIS 01:59:00
2119 1457 LEMAITRE DIDIER MALTOT 01:59:16
2120 2317 VICTOR DELPHINE ALENCON 01:59:40
2121 1494 LEPLE AMELIE THIBERVILLE 01:59:45
2122 1392 LEBRU PAULINE ALENCON 01:59:51
2123 1972 PREVOST SOPHIE LA FERRIERE BECHET 01:59:51
2124 1202 HUE THOMAS TEILLE 01:59:52
2125 1803 OLLIVIER ALLAIN HERMIVAL LES VAUX 01:59:54
2126 1325 LAROY DOMINIQUE ALENCON 01:59:56
2127 1060 GRIEU BERNARD CERGY 02:00:11
2128 2171 SEURIN MICHELLE ARGENTAN 02:00:12
2129 1473 LEMOINE CLAUDIE HESLOUP 02:00:18
2130 1476 LEMOINE PATRICK HELOUP 02:00:19
2131 2218 TEMPEZ PHILIPPE CREIL 02:01:14
2132 2319 VIEILLEPEAU CATHERINE BETHON 02:01:35
2133 1127 HANOT MARIE-FRANCOISE SAINT AGNAN SUR ERRE 02:02:07
2134 2277 VALLADE EMMANUELLE LA SELLE LA FORGE 02:02:35
2135 478 CHEVALIER PIERRE BOUCHEMAINE 02:02:41
2136 1990 RABETTE CHRISTIAN LA LANDE PATRY 02:03:17
2137 208 BIDAULT-WOIVRE SYLVIE SAINT GERMAIN DU CORBEIS 02:04:09
2138 945 GAUTHIER JOSIANE LISIEUX 02:04:14
2139 1602 LUCAS YVES GESNES LE GANDELIN 02:04:23
2140 1222 JARRY ROMAIN MAYENNE 02:04:24
2141 1809 OSDOIT CLAIRE GESNES LE GANDELIN 02:04:57
2142 599 DAISY PHILIPPE FLERS 02:05:46
2143 572 COUSSERAND ERIC L’HUISSERIE 02:06:40
2144 579 CROSNIER ANNIE RANES 02:06:56
2145 1581 LOPES ADRIANO VASSELAY 02:07:25
2146 868 FOURMIGUE JEAN-MARIE BOIS LE ROI 02:07:25
2147 1887 PICAULT ALAIN ALENCON 02:07:49
2148 1501 LEQUERTIER LAURENT CHARTRES 02:09:02
2149 483 CHEVILLOT VIOLETTE GESNES LE GANDELIN 02:09:05
2150 1619 MALASSIGNE ELISABETH LE MANS 02:09:06
2151 1314 LANG JEAN LE LUDE 02:09:28
2152 1890 PICHONNIER BEATRICE SEES 02:09:44
2153 1446 LEJAL JEAN-FRANCOIS SAINT JEAN DE CARDONNAY 02:14:04
2154 1763 MOUSTEY BERNARD NEAUFLES SAINT MARTIN 02:16:17
2155 1433 LEGAY JOËL COLLANDRES QUINCARNON 02:17:39

61000 Alençon

Captcha en cours de génération.....Version audio
Changer l'image

Alençon - Jeudi 22 juin 2017

Alencon
Jeu
22 / 06
30°/18°
vent 36km/h humidité 56%
Ven23°-12°
Sam24°-12°
Dim24°-14°
Lun25°-13°

Votre journal cette semaine

Abonnement

Recevez l'actualité qui
vous concerne. Je m'abonne

Un concentré d'informations pour ne rien manquer !

Je m'inscris à la newsletter
Vide-greniers et foires à tout
Vidéo du moment

Nada Surf à La Luciole, jeudi 1er décembre 2016